GFSGBSN_850_spd_000.txt.gz
Wind_Speed
18 18 19 19 19 18 18 18 19 19 19 19 18 18 17 18 19 19 17 17 17 17 17 19 18 18 18 10 17 17 16 10 8 12 20 23 22 22 16 12 11 12 11 9 9 9 13
21 19 18 17 17 18 18 18 18 18 19 19 20 20 20 19 19 19 20 20 18 18 17 18 19 17 14 16 10 9 5 6 4 17 20 24 19 24 11 13 12 5 8 9 10 12 14
24 23 23 23 21 20 19 19 19 18 18 19 20 21 22 22 22 20 20 21 22 20 20 18 18 17 15 22 13 19 17 10 10 16 18 26 20 21 16 11 14 10 11 5 10 15 10
26 25 24 23 22 22 22 21 20 20 20 20 19 20 21 23 24 23 20 21 22 22 21 19 16 11 11 12 14 12 10 11 9 14 17 16 27 17 19 9 8 14 14 12 11 16 10
26 26 25 25 25 24 23 23 21 21 21 22 23 22 19 19 21 23 22 21 22 21 20 17 9 5 9 8 5 5 8 10 10 12 9 15 20 19 19 14 15 15 14 13 12 15 7
26 26 27 26 25 25 25 25 24 23 22 21 22 24 22 21 20 19 19 19 18 18 14 9 9 6 10 6 10 2 5 12 12 16 11 17 17 15 15 16 17 18 17 11 14 15 13
26 27 27 27 26 24 24 25 26 26 25 23 23 24 23 22 21 19 13 11 7 5 7 11 9 15 9 6 6 6 7 15 12 19 14 21 19 21 23 21 20 17 15 13 16 14 17
26 26 27 27 28 28 27 25 25 24 25 24 24 26 24 21 21 15 9 6 3 4 15 20 29 29 27 14 12 22 17 18 17 17 18 15 22 22 22 21 23 20 18 17 14 8 15
26 26 27 27 28 28 28 27 27 27 27 26 24 26 25 21 17 4 12 3 2 9 9 13 13 12 9 21 15 17 30 26 20 21 21 19 19 20 19 22 23 22 21 18 16 11 15
27 27 27 27 27 27 28 29 29 28 26 26 22 25 26 23 7 14 3 4 10 9 6 6 7 7 9 8 8 14 33 28 18 23 21 20 19 23 17 23 22 23 22 19 16 12 13
26 25 26 26 27 27 27 28 29 29 29 27 26 23 25 22 19 8 7 7 7 1 6 8 9 7 8 10 3 7 23 30 21 18 21 20 23 21 23 23 24 24 21 20 20 15 18
26 26 27 26 27 27 27 27 26 27 28 28 25 20 26 21 19 9 4 3 1 7 9 7 9 12 11 13 5 6 17 24 21 20 17 23 19 20 21 21 22 19 16 12 17 15 18
27 27 28 29 28 27 26 27 27 27 27 27 27 23 19 21 10 9 7 3 6 10 4 10 10 13 11 7 10 11 18 21 18 20 21 20 22 16 20 21 23 22 17 11 15 15 15
27 28 29 31 28 27 27 26 27 29 29 28 27 27 20 19 15 15 10 8 14 5 18 4 5 11 13 9 9 14 16 19 25 22 15 18 20 27 17 28 25 26 25 16 23 15 14
26 27 29 29 30 30 31 28 28 30 31 30 27 23 19 10 8 13 14 15 10 16 10 14 14 15 16 14 8 10 19 20 23 25 23 20 25 24 25 18 27 28 25 26 25 20 16
27 26 26 28 31 32 30 30 28 27 31 31 30 22 15 10 11 13 11 24 20 16 9 13 17 12 13 17 14 13 16 16 20 24 22 15 13 24 23 21 25 29 21 24 20 26 23
26 29 30 30 32 28 26 29 27 25 29 29 17 10 6 9 10 15 14 22 21 29 18 18 18 20 13 15 14 12 8 11 16 19 22 22 13 15 23 27 28 20 23 21 23 21 19
28 28 31 27 26 24 22 26 19 20 26 17 10 5 5 4 11 14 16 19 15 17 27 25 17 20 19 16 16 14 12 9 9 16 24 22 15 15 19 27 29 26 25 26 17 27 20
28 24 25 25 23 24 23 22 18 17 18 19 10 15 10 11 8 13 15 15 16 21 21 21 27 22 19 18 20 17 16 13 10 10 14 20 18 14 19 19 18 27 31 27 26 20 26
26 26 26 25 25 24 22 21 16 14 15 13 9 4 9 11 19 12 16 13 19 18 19 25 21 20 23 23 19 10 12 13 11 17 7 6 18 22 16 22 21 25 26 30 30 23 23
24 24 24 24 25 24 20 17 14 13 13 8 9 5 2 6 7 5 11 14 14 15 15 16 21 22 19 20 21 20 17 10 10 9 6 6 15 16 21 21 19 24 28 28 31 32 29
24 23 23 23 22 19 19 19 17 14 14 9 7 7 6 15 16 14 12 13 14 14 9 16 16 19 21 20 19 17 21 18 17 14 15 13 11 10 17 22 24 23 26 27 26 27 31
25 24 23 22 22 21 20 20 17 16 14 8 9 10 9 11 8 7 11 13 9 6 12 18 15 11 9 8 9 11 12 15 14 12 13 14 13 10 16 15 20 24 27 27 29 27 24
27 27 26 23 21 22 22 21 18 17 17 18 10 8 5 10 10 8 10 11 13 14 15 21 16 13 4 12 17 18 20 21 19 19 18 10 13 12 12 1 13 15 19 23 26 28 24
28 26 25 23 20 24 21 20 18 16 20 19 17 13 6 6 13 14 15 16 15 17 17 19 20 19 17 15 7 11 13 17 23 22 21 18 14 10 11 14 11 18 8 17 22 25 28
27 24 23 21 20 21 21 17 16 15 17 19 20 18 10 5 9 11 12 12 10 9 12 12 11 15 11 7 10 15 16 15 16 18 21 19 16 13 8 14 18 3 12 17 14 15 23
25 23 20 20 17 17 16 16 15 13 13 16 18 18 19 7 22 19 16 13 10 11 6 4 7 7 6 8 12 12 16 18 15 20 19 16 16 19 11 10 8 11 13 6 9 8 21
24 22 21 18 16 15 14 14 14 12 12 15 19 18 20 10 26 28 26 24 15 14 7 8 7 4 4 5 8 10 10 11 15 18 23 18 15 11 7 9 15 10 2 1 15 17 8
22 19 16 14 13 14 13 13 13 12 14 14 12 11 15 20 17 23 25 23 24 29 24 10 8 7 3 4 3 5 4 3 12 12 3 14 14 8 11 8 5 7 1 3 7 4 9

GFSGBSN_850_spd_006.txt.gz
Wind_Speed
26 25 25 24 23 22 23 23 21 20 20 20 20 20 20 20 20 21 22 22 21 21 20 19 19 19 17 11 26 18 13 12 14 16 24 24 25 24 20 18 22 17 21 24 7 8 7
26 25 25 25 25 24 23 24 24 24 23 23 22 21 21 21 21 21 21 22 23 21 20 20 18 18 14 18 8 11 13 12 12 17 23 24 23 23 24 21 21 21 14 13 8 9 10
28 28 28 27 26 25 25 23 23 24 24 23 25 24 22 22 23 23 22 22 23 23 20 19 17 16 14 30 10 8 9 13 12 16 23 24 24 22 25 20 25 26 19 8 10 13 8
28 28 29 29 30 30 30 28 26 24 24 23 24 24 24 23 24 25 25 22 22 22 21 19 15 12 14 19 16 19 16 17 15 17 18 20 22 25 24 22 25 22 19 15 18 17 11
26 26 26 27 29 30 30 30 29 27 27 26 25 25 24 24 23 24 23 23 23 21 19 18 9 6 15 10 20 20 20 20 17 18 19 19 22 25 24 18 18 21 17 21 20 13 15
27 27 26 27 28 28 29 30 31 30 28 27 27 26 26 24 23 24 22 19 20 20 15 12 12 9 25 19 15 16 17 19 19 18 20 21 19 15 18 17 16 20 20 18 17 18 18
28 29 30 31 31 31 31 32 31 32 31 29 28 28 26 25 22 21 19 13 10 5 7 16 11 16 13 14 18 15 14 18 20 20 18 23 15 20 25 25 22 23 20 22 15 11 17
28 29 28 28 29 30 32 32 32 32 30 30 29 30 28 24 20 14 10 7 13 12 17 25 36 33 34 13 13 20 16 18 21 19 20 19 24 24 24 25 26 27 26 23 14 19 20
27 28 28 27 29 30 31 28 30 31 32 31 30 30 29 23 14 4 12 18 12 13 13 23 38 40 41 32 29 25 24 24 17 22 23 23 22 23 25 26 27 26 25 22 20 18 23
29 28 27 28 28 30 33 33 32 31 31 31 31 30 29 28 4 8 10 7 9 12 7 11 21 27 34 36 34 35 31 30 21 23 23 24 25 25 27 29 27 26 24 26 24 13 13
28 27 27 28 29 29 31 32 34 33 31 29 28 27 28 16 20 15 8 11 13 8 7 3 19 7 18 33 7 36 38 34 27 26 21 24 26 27 27 31 29 26 26 25 24 21 19
26 25 25 26 28 27 29 31 34 33 30 29 28 25 25 16 15 12 10 15 9 6 11 8 12 13 20 25 26 18 32 35 32 27 26 26 26 27 27 25 29 26 23 24 22 19 17
26 26 26 26 26 27 29 31 31 32 32 32 29 26 21 22 17 4 4 7 6 11 8 14 17 16 22 22 27 17 23 26 22 24 24 26 26 25 25 26 26 29 23 16 18 17 17
28 26 26 26 27 28 30 31 30 31 33 34 31 28 20 18 16 8 10 8 16 12 27 15 13 20 22 23 25 25 21 22 27 25 18 21 21 26 23 29 25 27 27 17 21 18 19
26 25 25 26 29 31 29 28 29 29 33 36 32 26 24 17 19 14 16 15 11 21 17 18 22 19 23 25 25 25 26 23 25 28 24 19 25 20 30 23 27 27 26 27 26 22 18
29 28 28 28 27 25 26 27 27 29 31 31 32 29 23 13 14 20 14 29 18 26 23 21 23 22 26 25 28 26 26 27 25 27 26 25 20 21 23 26 29 30 19 23 20 25 25
27 27 27 26 26 26 26 26 26 27 28 26 23 16 18 4 18 19 17 23 27 42 40 30 28 28 28 25 27 28 28 24 27 25 26 24 22 20 23 26 26 18 22 24 21 20 17
27 26 26 25 25 26 26 26 25 24 25 18 19 9 7 7 15 16 18 27 32 31 41 30 29 31 30 29 27 27 29 27 27 21 26 26 17 19 26 25 28 29 29 27 17 21 19
27 27 27 26 25 25 24 23 22 21 18 16 16 24 27 24 15 15 23 30 31 29 29 32 32 30 26 30 27 29 27 27 29 27 25 20 21 16 24 24 25 30 28 25 26 21 21
28 28 28 27 26 25 23 22 20 17 16 11 10 6 18 22 31 24 23 26 27 34 26 30 24 29 31 28 28 27 27 29 23 22 8 8 18 26 18 21 18 25 30 28 26 18 21
29 29 28 27 26 25 23 21 17 16 15 10 7 8 18 10 19 8 16 22 21 25 26 24 16 19 19 21 26 27 28 29 26 26 14 15 16 21 28 29 25 25 29 29 27 26 22
29 28 27 27 26 25 23 21 18 15 13 11 7 11 15 25 29 23 12 19 20 25 19 19 12 22 20 19 15 17 21 24 24 25 19 22 17 18 24 25 27 24 27 28 29 29 27
29 29 28 27 26 24 22 20 17 14 15 10 14 19 10 14 18 16 17 20 17 23 23 22 18 17 17 16 27 33 34 36 28 21 22 20 17 16 21 25 23 24 26 22 23 24 25
30 29 28 27 26 23 20 19 16 15 17 16 16 12 5 6 14 16 22 21 16 23 15 18 25 4 22 22 31 34 32 28 24 25 25 20 20 16 17 19 24 17 19 24 23 18 20
30 30 28 26 25 21 19 18 17 16 16 20 19 15 7 4 14 18 25 18 23 26 27 21 28 22 14 10 7 13 12 20 21 24 19 15 18 14 15 17 15 19 18 12 9 13 16
29 28 26 24 22 19 16 17 16 16 12 16 19 20 11 5 11 24 16 20 16 17 14 20 23 22 6 5 3 2 4 11 16 16 11 16 5 9 13 17 23 20 7 6 4 9 10
30 26 23 21 18 16 14 15 15 15 12 15 19 15 13 5 18 22 17 16 14 11 9 20 14 6 10 6 6 4 7 11 11 18 11 11 9 13 12 14 15 7 4 6 10 2 7
25 23 19 18 16 13 12 14 14 15 11 12 15 10 18 10 23 26 28 27 24 18 8 9 10 9 8 12 10 7 10 9 12 17 10 8 9 11 11 11 15 15 18 18 4 3 6
21 20 17 15 14 13 12 15 12 9 11 11 15 10 13 21 20 25 23 29 30 26 24 17 8 9 6 4 1 4 7 5 12 12 17 13 14 11 12 11 9 8 11 8 8 8 15

GFSGBSN_850_spd_009.txt.gz
Wind_Speed
26 25 25 25 25 26 26 26 25 25 24 24 23 23 22 21 21 22 23 23 23 23 22 20 20 18 16 10 27 15 14 10 9 12 21 27 24 24 13 16 21 15 12 20 20 23 14
28 27 27 26 26 26 27 27 27 26 26 26 26 25 24 23 23 22 22 22 23 24 23 21 20 18 14 11 17 7 16 21 16 15 17 26 17 25 18 19 13 24 19 19 24 24 24
27 27 28 28 29 29 29 29 28 28 27 27 26 27 26 26 26 25 23 22 21 23 23 21 20 19 18 34 9 6 12 11 9 16 16 23 26 24 21 12 29 25 15 15 15 9 7
26 26 27 28 28 29 30 30 30 31 30 29 29 27 26 25 26 26 26 24 23 22 22 20 18 16 17 27 20 13 22 21 15 13 15 18 20 26 24 21 22 14 9 7 10 10 10
26 25 26 28 29 31 31 31 30 30 32 32 32 32 29 26 26 25 25 23 23 21 20 19 12 9 17 13 17 25 22 21 18 18 22 14 22 25 19 7 7 7 10 10 11 9 6
29 28 28 28 28 30 31 33 31 31 31 31 30 31 31 28 25 25 24 19 17 16 12 9 10 6 23 21 18 16 20 24 21 20 18 20 22 7 9 6 10 9 7 11 12 7 11
27 29 30 29 29 29 30 32 32 32 31 32 32 31 30 27 24 23 23 14 10 4 2 10 10 15 30 18 14 19 21 21 22 24 12 23 8 16 13 15 12 14 16 17 16 9 10
29 29 29 28 28 29 30 30 30 32 33 32 31 32 32 27 23 15 11 10 12 17 20 24 35 41 41 24 15 20 24 22 20 14 10 10 17 12 10 11 17 20 19 19 16 12 8
28 27 28 28 29 30 30 31 32 34 34 30 30 31 32 28 15 5 9 13 17 17 10 23 36 34 46 37 35 29 28 26 10 15 15 16 10 17 17 18 19 22 20 18 12 12 12
27 28 28 28 29 31 30 30 32 34 35 32 28 29 29 33 5 10 4 10 8 15 5 8 10 12 25 36 16 38 36 22 13 16 14 14 18 19 23 23 20 19 22 21 21 13 8
27 27 28 28 28 29 30 31 34 34 34 34 31 28 26 20 25 18 15 10 12 14 5 6 8 9 17 30 13 34 38 31 20 18 10 19 16 20 20 22 19 20 13 21 21 13 7
27 28 28 28 28 28 30 32 34 34 34 34 33 29 27 22 20 15 13 4 13 2 9 7 10 9 13 25 22 3 43 39 22 15 15 17 18 17 18 15 21 17 15 17 17 11 11
27 28 27 27 28 29 31 33 33 32 33 34 33 30 25 25 21 11 13 7 3 7 8 6 7 10 16 13 23 25 23 26 23 17 20 16 21 22 17 17 14 20 11 12 12 10 8
26 27 29 29 29 30 30 30 30 32 33 36 37 31 26 23 20 7 3 3 11 9 14 18 9 10 15 14 18 20 15 20 23 19 9 15 17 24 15 21 18 13 18 13 13 13 9
28 29 28 29 28 28 28 29 30 31 32 35 36 32 24 19 13 9 12 9 6 9 9 12 19 13 14 17 12 19 19 22 22 24 18 15 16 9 24 20 18 14 19 15 6 8 6
26 26 26 27 28 28 28 29 29 30 31 31 35 32 26 5 14 23 11 16 8 13 23 21 9 8 12 15 15 17 22 19 22 26 24 9 7 19 19 23 18 20 8 13 15 17 18
27 27 27 27 27 28 28 27 27 28 29 27 23 14 5 14 18 21 15 11 17 29 31 11 15 25 25 24 19 23 22 23 25 21 23 23 16 19 9 16 22 12 17 13 8 15 13
28 28 28 28 28 27 27 26 26 26 27 23 12 5 11 23 9 12 13 16 26 25 33 25 21 26 26 26 28 23 24 22 21 25 22 19 15 14 23 19 20 24 12 13 8 9 6
28 28 29 28 27 27 26 26 23 23 20 22 13 20 18 8 5 8 12 21 24 23 22 23 25 23 23 27 25 24 26 27 27 18 21 14 18 11 14 14 19 19 21 12 19 4 13
29 29 29 28 28 27 27 25 22 20 18 16 8 5 12 26 12 13 12 12 16 24 20 21 19 20 15 18 17 17 25 20 27 23 23 16 12 26 18 13 6 9 21 22 16 15 14
29 29 29 27 26 27 25 23 21 16 15 12 5 6 16 7 13 19 10 11 17 13 15 23 13 17 20 16 20 12 15 23 22 27 13 6 18 18 17 17 18 25 15 25 22 20 15
30 30 29 28 27 26 25 22 18 14 11 11 5 6 8 17 20 17 17 12 16 15 9 16 16 18 18 6 18 18 19 17 11 16 20 12 10 10 8 12 21 21 19 19 26 23 19
30 29 29 28 27 25 25 19 16 11 13 9 11 11 7 7 11 11 12 16 16 16 12 16 18 12 14 16 18 21 28 29 23 25 24 12 5 4 10 7 8 15 27 20 11 23 21
28 28 28 27 26 24 23 20 15 11 14 16 16 12 4 6 9 12 21 22 18 19 13 17 23 17 20 9 17 24 27 26 23 22 17 19 15 8 6 6 8 10 9 12 14 7 13
28 29 29 26 23 22 20 19 15 12 12 17 18 17 5 6 12 17 18 18 20 23 18 20 21 29 26 5 5 7 10 16 18 19 16 15 11 6 5 8 3 8 11 4 7 10 1
29 27 27 22 21 19 18 16 15 14 12 16 16 14 13 6 7 18 16 20 14 9 11 17 24 23 19 5 1 2 3 6 8 16 11 14 7 3 3 6 14 5 5 9 5 2 6
27 26 25 22 19 17 16 15 13 13 11 14 16 11 11 7 24 16 10 12 17 8 5 14 11 15 16 8 5 3 5 3 6 7 6 5 3 4 5 6 4 4 5 6 4 4 4
25 24 22 20 19 18 16 14 16 14 11 10 13 12 15 13 26 28 30 25 22 18 5 9 8 6 4 4 5 4 5 6 5 9 10 4 9 7 4 4 3 8 8 6 3 11 15
25 23 22 20 19 21 18 17 14 12 12 14 17 10 12 19 24 33 28 33 32 30 27 4 7 2 5 4 4 3 2 2 0 3 2 3 7 4 8 5 3 14 10 1 14 20 19

GFSGBSN_850_spd_012.txt.gz
Wind_Speed
26 24 24 23 23 23 23 23 23 24 25 25 25 26 25 24 23 23 23 23 22 21 21 20 20 18 16 12 28 14 12 2 9 17 20 20 18 14 5 7 8 8 15 21 22 11 21
26 26 25 26 27 28 28 28 27 26 25 24 24 25 25 25 25 24 23 22 22 22 22 21 20 18 14 11 16 6 9 19 18 17 17 19 17 22 7 10 7 11 16 18 13 17 12
26 27 26 27 28 28 30 30 30 29 28 28 26 25 24 24 25 25 25 23 22 22 23 22 20 18 20 37 8 6 5 10 12 18 21 18 27 13 3 8 15 15 7 12 10 16 6
26 27 27 27 27 27 28 29 30 30 29 29 30 29 28 25 25 25 26 24 23 23 21 20 20 17 19 28 22 25 23 19 18 19 14 9 17 26 19 17 12 5 2 4 11 3 18
27 28 29 28 28 28 28 28 29 30 30 29 29 30 30 28 25 25 25 22 22 21 19 17 12 10 17 13 20 19 24 24 16 18 19 12 17 20 12 4 5 4 6 6 13 9 9
27 28 27 28 28 28 28 28 29 31 33 34 31 30 29 27 24 24 23 19 14 10 5 4 8 6 18 15 6 10 25 26 21 18 24 21 12 6 1 4 7 6 4 6 7 8 8
25 27 26 27 27 28 30 30 30 31 33 34 33 31 32 28 24 22 19 11 10 3 18 14 14 17 26 12 13 14 18 30 24 17 8 11 4 13 10 8 6 6 6 9 16 5 4
24 26 26 27 27 28 29 29 30 33 34 35 33 32 33 29 27 15 7 9 15 17 18 23 31 41 43 35 12 12 23 23 15 12 5 5 12 7 9 7 10 11 13 18 12 10 2
27 27 27 28 28 28 29 30 31 34 35 35 33 32 33 32 21 5 12 6 15 19 7 16 31 31 36 28 24 29 14 29 8 10 11 12 8 12 10 11 10 14 16 17 9 9 1
25 26 27 28 29 30 30 31 33 35 35 36 35 33 33 34 7 21 8 10 13 11 4 8 7 11 19 16 11 42 25 25 6 18 9 10 15 13 17 14 10 11 15 16 13 4 4
27 28 28 28 29 30 31 32 33 34 33 34 33 32 31 25 30 24 18 12 9 2 5 3 5 3 15 21 10 26 39 25 17 9 8 8 19 17 17 18 16 14 10 12 14 9 4
26 26 27 28 29 30 30 31 31 31 33 34 33 30 29 26 28 13 15 11 3 4 8 7 6 7 8 6 3 6 23 25 15 8 10 10 14 14 16 13 18 14 7 9 5 7 7
27 27 27 27 28 29 30 31 32 34 35 36 36 32 24 29 25 19 17 9 3 5 5 4 5 7 3 8 8 3 19 17 13 8 15 9 17 7 7 9 9 9 8 7 7 9 11
25 26 26 27 28 28 29 31 32 32 33 36 36 35 28 25 24 16 6 3 6 5 9 8 11 11 5 3 7 10 6 18 13 4 4 13 11 14 8 17 9 9 13 11 10 5 6
26 27 28 28 28 28 29 29 31 32 34 35 36 34 28 22 7 8 5 4 7 7 5 12 11 5 8 6 14 6 14 16 17 18 11 8 13 3 18 16 14 15 6 15 8 3 2
26 27 28 28 28 28 28 28 29 30 32 33 34 27 23 12 11 6 2 4 6 2 11 9 3 4 11 14 11 17 6 7 14 24 21 11 4 9 19 18 16 12 8 5 1 14 18
27 28 28 28 27 28 27 27 28 27 29 29 26 13 16 8 22 10 6 7 5 28 13 8 14 13 15 12 9 11 10 15 8 10 23 20 8 11 7 12 15 10 12 3 4 7 11
28 28 28 28 27 27 27 26 25 24 25 25 12 4 20 22 7 3 6 7 12 18 30 12 10 17 16 18 18 12 12 8 27 16 13 12 15 16 25 11 13 24 15 12 10 11 9
29 29 28 28 27 26 26 26 22 20 18 21 15 14 20 23 4 6 9 8 8 10 6 7 5 8 8 5 7 7 8 12 28 15 8 9 12 14 8 11 3 7 15 18 5 4 18
30 29 29 28 27 26 25 24 22 18 16 14 7 4 7 8 6 11 10 7 11 17 8 8 6 5 7 2 3 9 9 9 23 16 27 17 6 12 20 21 6 6 11 16 18 16 14
29 28 28 28 26 26 25 23 21 16 13 10 3 4 7 4 6 10 7 9 14 8 8 10 4 8 4 4 4 4 4 8 15 10 17 6 5 5 13 17 20 17 10 19 21 21 21
28 28 28 27 27 25 24 21 19 13 11 8 4 4 6 11 10 7 4 3 10 11 9 7 6 12 7 5 6 13 9 2 3 8 11 6 5 8 7 13 25 23 19 22 18 21 20
27 28 28 29 27 23 22 20 17 11 10 7 9 11 8 7 4 3 3 9 15 12 13 13 13 5 10 11 23 22 20 14 11 3 9 4 4 8 6 9 16 17 33 21 15 11 16
26 29 27 27 24 22 21 18 16 10 11 12 14 14 7 4 5 6 12 18 16 14 10 14 16 6 7 29 33 19 23 22 20 14 17 10 7 3 6 7 15 5 19 14 8 7 10
26 27 26 26 24 22 20 18 15 12 9 13 14 16 6 3 7 13 12 12 16 19 13 16 13 17 20 19 5 5 5 4 12 18 17 16 10 4 4 3 7 3 3 9 8 5 3
27 26 25 24 23 23 21 18 16 12 10 13 14 13 12 4 6 10 7 10 11 8 5 7 20 18 10 3 4 4 4 4 5 6 13 4 19 9 4 3 5 3 2 7 7 2 6
27 27 24 23 21 22 23 20 17 16 13 13 17 11 11 8 14 13 6 6 8 6 4 10 8 10 5 3 4 4 4 4 4 5 6 4 3 10 8 5 6 5 15 2 8 7 2
27 26 25 22 22 21 21 21 18 15 13 13 14 11 14 15 27 28 27 21 16 13 6 9 8 1 3 2 3 4 5 5 3 6 5 5 2 3 4 4 6 21 15 4 6 5 16
26 26 26 25 23 22 22 20 16 15 14 14 18 10 13 17 26 34 39 42 40 37 21 10 9 2 2 2 4 4 3 1 4 3 5 6 6 3 5 5 14 17 5 12 9 18 10

GFSGBSN_850_spd_015.txt.gz
Wind_Speed
24 24 23 22 23 23 24 24 23 22 22 22 23 23 23 23 23 22 21 21 21 20 19 19 19 15 14 11 26 9 3 4 12 26 30 22 23 23 7 7 14 14 15 13 28 17 26
24 24 25 24 24 24 25 25 26 26 25 23 23 23 23 23 23 23 23 22 22 21 21 20 19 16 14 11 16 9 18 23 11 23 28 27 15 22 8 8 8 9 16 12 14 23 24
24 25 26 26 26 26 26 26 27 28 29 29 27 26 26 25 23 23 22 23 21 21 22 22 19 17 20 37 10 5 11 12 23 21 24 24 24 18 11 5 9 5 4 5 7 12 13
24 25 26 26 26 26 27 28 27 28 30 31 31 29 28 28 27 26 23 20 21 21 20 20 17 16 15 16 16 29 25 13 14 22 24 17 19 25 6 4 8 3 2 2 1 3 7
22 23 24 25 26 27 28 29 29 29 31 31 30 30 30 29 29 28 25 20 19 17 14 12 10 11 13 11 17 22 32 29 22 21 24 17 14 11 11 4 3 4 4 5 9 6 6
22 24 25 25 26 27 28 29 31 32 34 35 33 32 32 33 30 29 23 17 7 5 2 2 6 5 16 8 3 5 13 28 25 24 22 13 12 4 2 4 8 5 4 4 6 5 8
24 24 25 26 28 28 29 29 31 33 34 35 35 34 34 34 35 26 14 4 6 2 6 10 6 10 15 10 9 6 10 30 26 12 8 10 6 9 9 6 5 3 3 5 6 3 2
26 26 27 28 28 29 30 31 33 34 35 35 35 34 35 34 33 12 23 7 12 12 18 21 29 39 40 32 10 11 14 22 11 9 6 3 15 8 8 8 8 7 7 12 14 8 8
25 26 26 27 28 29 30 31 32 33 34 34 35 34 34 33 21 18 18 8 16 21 7 14 25 25 24 29 19 29 21 26 6 10 9 10 6 10 9 7 8 6 9 11 10 4 2
25 25 26 28 28 29 29 30 31 32 33 33 33 32 33 34 9 25 5 16 17 13 4 8 6 7 13 14 10 44 25 23 5 18 8 7 10 10 9 8 9 9 7 9 5 3 3
25 26 26 27 28 28 29 30 32 33 34 35 35 31 29 28 30 25 15 15 10 1 6 3 4 5 14 17 5 19 37 19 10 8 9 9 13 16 11 17 8 11 4 8 3 4 0
25 26 27 28 29 30 30 31 32 33 34 36 36 34 30 29 33 12 21 14 2 3 9 5 3 3 5 8 4 8 24 13 14 5 5 12 7 13 11 8 13 4 2 5 3 3 6
26 28 29 30 30 31 31 32 32 32 34 36 36 33 29 31 31 23 17 9 3 5 5 4 5 5 4 5 5 5 15 16 10 12 14 6 20 5 6 8 6 5 7 3 3 4 11
27 28 29 30 30 31 31 31 31 32 34 36 37 34 29 16 18 7 3 3 6 4 6 5 5 9 3 10 3 5 13 18 14 4 7 9 6 15 6 10 11 8 12 6 8 5 8
28 29 30 30 30 30 30 30 31 31 33 34 36 34 28 12 20 9 5 4 7 5 3 8 7 6 5 6 7 8 7 13 15 10 10 9 10 4 15 7 16 8 11 13 1 3 2
29 29 29 29 29 29 29 30 30 30 31 31 34 33 13 17 26 7 3 4 4 3 6 5 4 4 5 8 8 8 6 3 8 5 4 8 3 7 11 9 9 15 9 4 2 11 13
28 28 28 28 29 29 29 28 29 29 28 28 26 17 11 27 12 5 3 6 6 18 7 6 3 4 2 4 4 3 5 5 13 11 10 3 4 7 6 8 15 4 13 4 6 7 9
28 29 29 29 28 28 27 27 26 26 26 24 14 4 19 24 8 5 4 13 15 11 14 3 3 4 3 5 3 2 5 5 18 7 5 6 3 14 17 7 19 19 16 9 7 12 6
28 28 27 27 26 26 25 25 23 23 21 22 18 9 12 10 4 5 7 7 15 13 6 5 5 5 6 2 2 3 5 7 19 10 6 7 4 2 6 4 3 10 12 13 10 4 21
26 27 27 27 27 26 25 24 22 20 17 14 7 4 6 6 7 4 5 4 10 19 6 12 3 3 4 4 5 4 4 3 18 8 12 3 3 4 5 5 4 7 11 20 17 11 17
27 27 27 27 26 27 24 21 20 17 14 10 3 3 2 4 5 5 7 5 6 9 9 15 4 7 4 2 2 2 1 7 10 7 6 4 3 3 5 13 14 15 12 25 20 23 16
25 26 27 26 25 24 22 20 18 14 13 6 5 3 3 7 6 5 5 5 5 5 4 4 8 12 2 4 4 4 5 2 5 5 6 3 4 6 5 9 10 15 20 25 24 23 18
27 27 27 26 25 23 22 19 16 14 11 5 6 10 7 5 3 2 3 2 9 15 7 12 9 11 5 3 11 17 21 18 10 3 3 2 1 5 5 8 11 11 25 20 23 13 17
27 27 26 25 23 22 21 19 15 12 10 10 13 12 6 4 6 6 10 15 13 13 13 21 22 3 7 22 24 15 14 19 17 12 13 3 4 1 5 6 8 10 9 17 18 8 9
27 27 27 24 23 22 21 20 17 12 9 13 14 11 4 5 9 11 13 9 14 16 15 15 22 8 18 16 4 4 4 2 13 19 18 16 5 2 3 3 9 12 4 9 13 14 7
25 24 25 24 22 22 20 20 18 15 12 15 14 12 11 6 5 9 3 11 8 6 5 5 11 22 8 2 3 5 4 3 4 5 20 17 17 5 3 4 6 0 18 25 14 17 9
25 25 25 25 25 23 21 19 18 16 13 14 13 9 11 8 17 15 7 5 7 5 5 9 8 5 0 1 3 4 5 4 4 4 4 6 7 14 11 5 8 9 25 16 5 8 7
26 27 27 27 27 26 23 21 18 15 13 14 16 12 14 12 26 28 28 22 16 11 5 6 10 1 3 2 2 3 4 6 5 6 5 9 10 6 8 8 8 16 12 9 10 24 5
27 28 30 31 31 30 27 23 20 17 15 14 19 12 14 18 26 32 36 41 36 37 22 11 9 6 3 1 1 2 3 4 5 4 4 6 7 8 6 6 2 8 12 24 20 14 18

GFSGBSN_850_spd_021.txt.gz
Wind_Speed
21 22 23 24 24 23 23 23 23 23 23 23 23 23 23 24 24 24 24 25 24 23 21 19 18 16 13 10 23 8 4 2 19 29 31 30 31 19 13 11 10 17 11 12 15 16 16
23 23 23 24 25 25 25 25 25 26 26 26 25 25 25 25 25 25 26 29 27 24 20 20 19 17 14 10 12 14 22 16 13 31 30 27 23 17 12 5 17 8 11 15 11 15 10
23 23 23 25 26 26 27 28 28 28 28 29 29 29 29 28 27 26 30 24 25 23 18 17 19 19 19 28 12 10 15 21 16 29 34 33 15 21 7 4 15 14 12 15 12 7 7
24 25 25 26 27 27 27 28 28 29 29 30 30 30 30 31 29 29 22 25 23 18 13 14 17 18 13 10 28 14 18 18 23 25 27 30 19 21 6 2 2 4 5 9 6 8 6
25 25 26 27 27 28 29 29 30 30 31 31 31 31 31 30 30 28 23 20 16 12 7 6 12 14 9 11 25 31 16 24 28 29 20 20 18 12 9 11 8 8 9 11 11 10 3
26 27 28 29 29 30 30 31 31 31 31 31 32 33 32 31 30 23 22 15 11 10 3 1 4 6 14 6 10 23 30 23 24 23 16 10 15 12 10 13 15 11 13 12 12 5 11
26 27 28 29 29 30 31 32 32 33 33 32 32 33 34 31 30 19 17 7 6 3 7 10 4 7 6 7 7 16 37 31 12 22 15 21 13 22 24 18 16 9 17 12 11 12 7
26 27 28 29 30 31 31 32 33 33 33 33 33 33 35 32 28 12 11 6 10 11 16 19 26 35 23 4 5 15 33 26 21 18 16 10 25 21 16 15 18 19 20 15 8 6 5
26 27 28 29 31 32 33 34 34 34 35 34 34 33 35 33 20 20 9 3 14 23 7 13 15 14 19 28 9 21 35 22 24 23 28 24 9 20 19 18 20 24 24 19 12 1 4
27 28 29 31 32 33 34 35 36 36 36 34 34 34 33 33 13 22 3 6 19 17 5 6 5 5 12 13 11 23 30 22 11 27 21 21 21 23 22 24 22 23 20 17 15 9 13
27 28 29 30 31 32 33 33 33 34 35 34 33 34 33 26 21 16 19 17 14 1 6 5 4 6 9 15 1 15 33 17 22 21 15 19 23 19 26 26 22 17 12 17 14 13 10
28 29 30 31 31 31 32 33 34 35 36 35 32 32 29 16 18 23 23 13 2 4 9 2 5 5 6 12 3 4 20 20 12 13 22 20 10 24 19 19 21 12 9 8 4 8 15
28 28 29 30 30 32 33 34 35 36 36 36 34 31 15 16 23 23 23 4 4 7 6 4 3 5 4 2 7 7 20 26 17 18 17 22 14 10 17 17 18 22 16 7 10 12 16
27 27 28 30 31 33 33 33 34 35 36 37 35 30 7 18 21 21 18 3 9 3 5 9 7 11 3 3 2 2 17 23 21 18 16 19 18 22 16 18 14 26 22 9 14 13 12
26 28 29 30 30 30 31 33 34 35 37 38 36 24 14 25 21 16 6 6 4 8 9 13 13 4 1 2 4 3 7 20 20 12 12 19 20 8 20 12 23 15 24 23 7 2 5
27 27 27 28 29 30 31 32 32 32 34 36 35 21 17 27 17 7 2 3 4 12 16 8 5 7 5 7 2 2 2 6 5 2 5 5 7 13 21 21 23 15 18 11 12 14 12
25 26 26 26 26 27 28 30 30 31 33 33 27 10 21 21 10 5 3 5 6 11 17 7 7 8 5 5 5 3 5 8 7 6 5 2 5 4 17 19 21 10 19 10 11 9 8
25 25 24 25 25 27 28 29 29 29 31 31 17 3 20 17 9 4 5 12 9 10 10 5 7 7 5 6 4 3 3 6 14 7 0 4 3 11 17 11 21 24 18 21 11 10 12
23 23 25 25 24 24 25 26 27 27 27 27 11 5 11 18 5 7 10 7 7 12 10 8 7 9 6 5 3 5 4 4 14 9 5 4 4 10 9 11 8 20 23 21 19 9 16
23 25 25 25 23 23 23 25 26 25 24 22 7 4 6 7 3 7 10 6 9 12 6 7 9 6 9 3 3 2 4 4 10 8 8 2 1 9 14 9 3 6 8 23 23 17 18
24 25 26 26 25 23 22 22 24 23 21 17 6 3 2 5 5 11 8 4 10 9 7 9 2 10 11 4 3 4 7 6 4 10 6 4 1 3 2 4 4 8 10 11 16 22 22
22 24 25 26 26 24 22 20 22 22 20 12 5 4 3 8 8 9 4 3 9 10 9 8 5 13 12 6 8 7 10 5 3 6 6 5 0 2 5 9 10 12 12 13 15 17 16
22 23 23 24 24 24 22 20 19 19 18 7 9 10 7 4 6 3 3 6 12 14 8 5 7 12 14 9 12 16 15 16 14 9 4 5 1 2 5 5 10 14 21 16 15 14 15
23 24 24 24 24 24 23 21 18 15 16 14 12 12 6 5 4 8 13 18 15 13 11 23 20 11 7 15 21 18 15 18 16 15 13 5 2 2 5 3 9 4 3 6 11 14 19
23 25 26 28 28 27 26 23 19 15 14 14 12 9 5 5 11 14 12 13 15 16 13 18 15 9 13 8 6 5 3 4 10 15 15 16 8 4 5 11 16 16 5 1 4 12 6
24 26 28 30 31 31 30 26 22 17 14 16 14 11 12 6 5 11 11 12 10 10 7 5 12 9 5 3 2 3 3 2 3 4 7 12 13 7 4 9 11 3 7 3 4 13 5
26 28 31 32 33 32 32 29 23 23 15 16 18 13 11 9 17 14 9 8 4 4 4 8 7 7 3 2 3 3 4 3 4 5 4 6 8 16 14 9 7 10 3 2 8 1 11
28 30 32 35 34 34 33 30 27 23 18 15 21 18 14 12 22 23 21 19 19 12 5 6 9 3 2 4 3 3 3 2 5 9 6 7 6 7 12 11 19 13 12 9 5 9 15
31 33 35 36 35 35 34 30 29 26 20 17 21 20 17 19 25 30 34 32 30 29 20 9 6 2 2 2 2 1 3 3 4 5 5 9 11 4 9 9 14 18 18 19 12 16 19

GFSGBSN_850_spd_024.txt.gz
Wind_Speed
21 22 23 23 24 24 24 24 24 24 24 24 24 24 24 23 23 24 25 25 25 23 21 20 19 16 12 10 17 9 6 2 17 29 29 30 30 27 19 18 12 19 11 9 11 12 11
22 23 23 24 25 25 25 26 26 26 26 26 26 27 27 26 25 26 26 28 25 21 20 20 20 15 11 16 12 14 20 15 22 29 29 30 29 25 14 12 17 12 18 13 10 10 11
23 24 25 25 25 26 26 26 27 27 27 28 28 29 29 30 28 27 29 25 26 21 18 18 19 16 15 24 13 10 15 19 24 27 31 30 20 26 10 14 16 19 13 14 15 12 8
24 25 25 26 26 27 28 28 28 28 28 28 29 30 30 30 30 28 27 25 24 17 12 12 15 13 13 12 23 13 15 20 22 21 22 24 17 28 14 4 7 16 17 16 17 16 12
23 24 25 26 27 28 29 29 29 29 30 30 31 32 31 31 31 28 25 24 21 16 10 5 8 10 8 13 23 26 20 22 24 20 20 20 22 22 23 14 13 14 15 20 16 14 6
24 25 26 27 27 28 28 29 29 30 31 31 32 33 32 31 32 25 21 21 18 13 3 1 3 7 14 7 10 24 23 17 27 24 19 19 19 17 18 17 19 20 20 17 16 16 15
23 24 25 26 27 28 29 30 31 31 32 32 32 32 32 31 31 17 21 13 8 5 7 12 4 8 1 5 9 19 30 24 25 29 19 27 19 25 27 24 20 18 19 20 16 13 11
23 24 26 27 28 29 30 31 32 32 33 34 35 34 33 31 28 15 14 4 7 8 18 22 29 31 20 3 11 20 34 24 28 27 23 18 27 23 22 21 20 21 18 22 15 9 9
24 26 27 28 29 31 32 33 34 34 34 34 35 34 33 31 18 18 8 4 11 14 10 15 19 22 23 26 14 26 43 34 27 28 31 25 15 23 23 22 23 23 24 21 15 12 15
25 25 26 28 29 29 29 29 30 31 32 33 34 33 32 30 9 18 5 16 16 10 6 7 8 7 17 19 15 23 42 41 18 29 28 28 22 22 25 26 23 25 25 21 20 17 15
24 26 28 28 28 29 30 31 32 33 33 32 33 30 28 22 18 10 19 21 13 2 7 8 8 6 10 22 8 27 33 40 26 24 27 22 27 23 29 26 26 22 18 20 21 19 18
26 27 27 26 27 29 32 34 36 37 36 35 34 29 22 15 13 15 23 20 2 6 10 6 6 9 9 20 9 15 29 35 30 24 27 27 19 24 22 20 23 15 16 14 15 17 20
25 24 24 27 30 32 33 33 34 34 34 35 33 28 10 13 15 23 21 7 7 9 5 4 3 1 9 12 19 15 29 31 24 25 30 26 27 18 17 21 21 22 17 9 12 17 20
24 25 26 28 28 28 29 31 33 34 35 35 30 22 9 15 21 22 14 9 14 2 7 17 10 16 12 11 13 21 21 27 32 26 17 22 21 30 24 28 18 27 23 12 16 14 17
24 24 25 26 26 27 28 29 31 32 33 34 29 17 8 19 21 16 11 9 9 13 14 14 19 10 11 8 6 14 22 25 33 29 23 22 26 30 20 21 26 25 25 27 6 5 9
21 23 23 23 24 25 27 29 31 32 33 32 24 12 11 22 17 9 8 8 9 11 17 13 14 7 7 1 8 8 16 2 25 32 8 16 19 19 24 27 25 20 25 22 15 17 18
21 22 22 23 23 24 27 29 31 32 33 30 16 8 16 20 11 10 5 10 13 16 14 10 14 13 12 9 9 6 4 7 6 13 5 14 14 23 22 25 26 22 19 23 18 17 13
20 20 22 24 24 23 25 27 29 32 33 23 15 6 19 20 5 6 7 11 16 12 16 11 10 12 13 11 10 4 4 7 8 7 17 17 10 11 26 25 26 29 23 27 14 23 19
19 20 21 22 23 23 23 25 26 28 30 21 13 7 13 17 6 7 10 9 10 12 11 11 9 10 14 14 5 3 1 4 11 5 1 7 14 15 16 21 23 30 28 25 25 16 21
20 21 22 22 22 23 22 22 23 24 24 16 10 5 8 8 6 13 11 11 11 9 6 15 8 16 15 15 10 4 3 5 8 9 9 5 14 23 19 20 19 26 29 27 27 19 17
21 22 22 23 23 23 22 22 21 21 20 12 7 5 5 7 11 14 13 9 11 9 12 11 3 10 11 7 12 12 6 10 1 9 6 5 14 9 15 2 6 18 28 30 30 26 23
21 21 21 22 23 24 23 22 20 21 19 7 8 5 4 14 12 13 5 9 10 14 14 11 11 8 9 6 11 12 11 6 5 9 8 5 4 6 14 10 7 10 12 13 22 27 26
21 21 22 23 24 26 25 23 19 19 14 6 5 6 5 6 9 8 7 12 15 15 10 8 15 14 12 11 10 17 18 17 15 11 8 7 3 8 15 10 10 15 20 19 18 17 17
22 22 23 25 26 27 27 26 23 16 16 12 10 7 5 7 7 10 14 15 13 12 12 20 18 14 11 16 20 21 21 19 16 13 12 8 8 6 6 6 15 11 10 20 23 18 19
24 24 25 27 27 28 28 27 26 20 18 15 14 8 5 6 13 15 9 11 14 14 13 17 12 8 10 16 10 9 9 8 15 15 14 13 9 7 10 12 9 5 3 8 11 17 17
27 27 27 29 29 31 29 28 27 23 18 16 19 14 9 5 4 7 17 14 11 9 8 9 10 10 8 6 6 7 5 4 6 7 15 14 12 9 7 15 14 4 16 2 2 9 6
28 30 30 31 31 32 30 29 27 24 19 18 20 18 11 8 15 10 9 9 8 9 7 11 7 6 4 4 7 6 8 2 5 10 12 14 11 14 13 11 9 8 8 2 11 4 6
30 31 32 33 32 31 31 29 27 24 22 17 22 17 18 10 23 23 18 16 16 15 9 6 8 2 4 4 4 3 6 3 6 10 6 10 12 12 13 16 21 7 9 12 11 12 13
34 34 32 33 32 31 31 29 25 28 21 16 20 19 17 22 16 25 26 27 26 23 21 7 10 5 3 3 2 3 4 4 6 9 9 13 12 11 9 11 13 7 12 14 19 19 18

GFSGBSN_850_spd_027.txt.gz
Wind_Speed
20 21 21 22 22 22 22 23 23 24 24 25 26 27 27 27 27 26 27 27 27 23 23 21 18 13 11 12 22 16 8 10 18 30 30 31 32 30 23 21 18 19 19 11 6 7 6
21 21 21 22 23 23 23 23 24 24 25 26 27 28 28 28 29 29 30 27 26 24 24 20 17 14 12 20 12 17 12 12 18 32 31 31 31 30 26 23 20 15 20 15 11 13 13
22 22 23 24 25 25 25 25 25 26 27 28 29 29 29 29 29 30 32 29 25 23 20 18 15 13 16 26 9 12 18 18 20 29 30 29 27 27 28 15 22 23 10 16 16 16 9
21 22 23 24 24 25 26 27 28 29 30 31 33 32 31 31 30 30 31 30 25 23 19 15 9 11 13 7 23 13 17 21 21 24 24 24 27 26 30 21 14 19 19 18 19 19 16
21 22 23 24 25 26 27 28 28 29 31 32 33 34 34 33 32 31 27 26 25 21 16 7 3 11 13 12 20 27 20 26 25 24 22 21 25 23 26 21 15 20 18 24 21 23 18
21 22 23 24 24 25 26 26 27 28 29 30 31 32 33 32 32 30 24 23 24 15 8 3 6 8 18 13 16 23 27 25 28 25 22 23 22 18 20 20 21 22 24 21 23 18 14
21 22 23 24 24 26 28 30 31 33 34 35 35 35 34 31 30 24 26 19 8 5 11 18 10 18 4 13 8 21 30 27 29 28 21 30 20 27 29 27 22 22 21 24 18 23 22
23 23 23 24 26 29 30 31 31 31 33 34 34 34 33 31 22 22 19 12 9 11 19 27 38 36 29 11 13 19 33 29 29 27 26 19 28 26 24 26 27 26 26 24 22 13 11
20 21 22 25 26 27 27 27 27 28 29 30 32 31 31 29 14 17 10 13 15 16 11 24 34 36 34 31 21 29 41 39 30 31 32 28 19 27 26 25 27 28 28 24 20 18 19
20 22 23 25 26 25 26 27 30 31 32 32 33 32 28 25 7 18 6 20 18 12 7 9 10 11 31 27 22 29 41 44 20 34 32 30 26 26 27 27 26 27 26 23 18 19 17
21 22 23 23 23 25 29 32 33 33 33 33 32 32 27 19 14 12 18 21 17 5 7 13 11 6 16 31 12 36 40 45 26 26 29 32 28 23 27 26 26 24 20 24 23 20 19
21 22 22 22 26 30 31 31 31 30 29 29 27 26 21 13 13 14 22 20 7 7 10 7 7 10 15 27 27 28 37 44 40 27 28 30 25 24 22 24 22 21 16 19 22 19 20
20 20 22 25 27 27 27 27 28 30 30 29 26 21 13 11 16 22 21 13 9 11 3 11 10 6 16 19 25 19 33 33 30 29 29 28 32 24 21 22 24 18 19 13 16 18 17
21 22 24 25 24 24 26 26 27 29 30 29 24 16 10 11 20 19 16 12 15 18 15 22 20 23 19 20 22 24 28 27 36 32 19 22 25 34 22 27 25 27 25 16 21 18 17
21 23 23 23 23 22 25 27 29 30 31 32 21 12 5 18 17 14 16 11 15 12 18 19 26 21 18 23 15 25 28 28 32 33 31 25 31 30 25 24 27 23 26 28 22 22 14
21 22 22 23 24 24 25 27 29 31 32 30 21 16 5 21 15 11 12 15 19 14 19 16 21 18 22 11 14 19 28 24 28 36 30 28 20 28 32 24 28 25 25 22 16 20 19
20 21 23 24 24 26 26 28 29 31 32 27 17 14 11 19 13 15 7 9 10 21 15 14 21 22 18 21 27 17 17 6 6 13 34 33 22 16 25 28 27 26 22 25 20 18 13
20 22 23 24 24 25 28 29 29 31 33 25 15 7 18 18 17 6 8 9 11 15 16 15 21 21 17 11 17 17 17 10 13 13 18 35 13 21 31 28 27 26 29 27 17 24 17
21 22 22 23 24 25 27 29 29 29 29 27 17 15 5 16 7 10 14 15 11 12 11 11 10 18 20 18 9 16 15 10 12 14 6 9 17 16 22 25 28 31 30 24 26 18 21
21 21 21 23 24 25 25 26 29 27 27 18 12 5 14 13 10 10 11 16 14 6 7 14 8 12 19 19 17 11 11 13 9 10 17 10 17 23 19 25 24 29 29 30 24 19 17
21 21 21 23 25 25 25 25 26 26 25 13 7 7 7 7 11 13 15 13 13 8 10 16 3 7 9 8 17 10 10 16 8 6 10 7 15 20 26 18 20 28 29 30 30 24 24
22 22 22 24 25 26 26 26 24 24 22 9 9 8 10 16 12 14 15 9 13 13 17 15 9 15 9 11 13 15 14 11 6 15 11 10 12 19 23 24 5 14 26 32 30 27 24
23 24 24 25 26 27 27 27 25 21 17 10 8 10 9 12 11 10 10 14 12 11 13 10 15 13 15 8 16 20 17 22 17 15 13 11 9 12 17 22 11 16 20 20 24 27 22
25 25 25 26 28 28 28 29 26 21 16 18 17 14 7 9 10 11 14 17 14 13 15 21 19 15 18 16 20 23 23 21 18 15 14 12 12 9 12 18 20 14 19 14 14 14 16
26 27 26 28 29 30 31 29 27 23 16 18 21 14 6 7 13 17 9 12 17 17 16 18 14 11 15 18 14 11 12 14 17 14 15 13 11 7 10 16 7 17 14 21 22 20 14
27 29 28 30 31 31 31 30 27 23 18 20 20 16 15 6 8 10 20 15 10 12 14 11 10 13 10 8 9 12 6 5 14 13 15 15 12 11 8 13 18 4 10 2 3 12 20
30 32 30 30 31 30 30 29 27 24 19 19 23 18 17 9 21 21 9 12 14 12 8 14 13 14 9 5 8 10 9 8 6 15 15 12 13 14 13 8 10 5 12 13 12 6 17
32 32 30 30 31 29 29 29 26 24 18 18 21 17 18 12 27 30 25 22 17 14 9 11 11 5 6 3 5 3 7 2 9 12 8 12 15 13 14 16 17 5 7 5 8 11 16
31 32 31 30 30 28 28 27 25 21 20 16 20 17 17 21 15 19 24 29 28 21 16 9 13 16 5 4 3 5 9 4 9 9 9 9 9 10 13 15 4 11 14 5 4 9 9

GFSGBSN_850_spd_030.txt.gz
Wind_Speed
19 19 19 20 21 21 22 22 23 24 25 26 27 27 27 27 28 29 29 30 28 26 24 21 18 13 11 12 22 12 16 6 19 26 28 29 31 31 24 22 23 21 22 28 10 28 6
19 19 20 20 21 22 23 23 24 25 26 27 27 27 28 28 29 30 30 31 29 26 23 19 16 11 15 19 17 19 12 12 19 29 31 29 29 30 27 25 22 24 20 20 29 40 10
20 21 22 22 23 25 26 27 28 30 30 30 31 31 30 30 29 30 30 29 27 25 22 18 15 11 16 33 7 10 20 17 20 27 32 30 29 29 30 22 29 26 19 16 15 16 12
21 21 22 24 25 25 27 27 28 29 30 31 32 32 32 32 31 30 28 27 28 24 23 16 12 8 14 9 19 18 19 19 19 22 28 25 26 26 30 25 25 20 20 18 18 18 14
20 21 23 23 24 25 25 26 28 30 31 33 35 35 34 33 32 29 27 25 25 22 20 6 1 9 13 7 23 28 21 26 22 22 24 26 26 29 26 21 20 21 19 22 21 20 19
21 21 22 23 24 25 26 28 30 31 32 33 33 34 34 32 31 26 26 23 21 17 11 4 8 8 20 16 14 26 27 24 27 25 25 28 26 20 21 19 21 22 21 19 22 19 22
21 23 23 24 26 29 30 31 31 31 32 33 34 34 34 30 26 24 27 25 27 2 9 24 14 18 12 8 7 20 31 27 29 29 24 30 19 25 30 26 22 23 21 24 20 22 24
21 22 23 24 26 27 28 29 30 31 32 33 34 34 34 30 20 22 17 19 18 19 30 28 39 45 43 28 19 20 29 33 30 28 26 22 28 27 26 25 26 28 25 24 23 23 19
21 22 23 25 25 26 28 30 31 32 34 35 35 33 33 29 14 18 14 18 22 23 17 31 42 42 48 36 34 25 37 41 29 30 30 28 19 27 26 26 28 28 27 24 22 22 19
22 22 24 25 25 26 29 32 35 36 35 35 35 35 31 30 9 15 17 23 23 19 8 11 14 12 39 32 32 35 36 41 28 32 30 27 32 29 27 29 26 26 27 25 25 21 18
21 22 23 24 26 30 31 32 33 34 33 32 30 30 27 15 18 15 25 25 21 10 8 8 10 5 11 36 10 43 37 42 32 25 31 30 26 30 28 28 26 24 24 25 25 23 19
21 22 24 27 30 31 32 31 30 32 31 31 29 26 22 13 13 18 24 23 13 6 10 8 12 22 9 29 36 13 43 43 39 26 28 31 32 25 25 25 26 24 22 23 23 18 17
21 23 26 28 29 29 30 31 32 33 35 34 31 15 9 10 11 24 21 16 7 9 16 18 27 28 27 19 28 30 31 31 28 31 28 29 34 29 27 22 25 22 21 14 14 16 16
21 23 25 26 28 29 30 31 33 34 36 36 32 11 11 10 19 19 17 11 11 13 25 31 24 26 23 20 18 27 26 28 33 30 17 23 26 36 23 31 25 28 25 15 22 17 17
21 23 24 25 27 29 31 32 33 35 37 38 30 18 12 6 20 14 15 10 7 18 16 20 27 20 22 29 22 19 31 30 32 34 32 23 30 31 33 26 26 23 25 24 21 20 16
20 22 23 24 26 28 31 33 34 36 39 37 29 23 16 11 17 14 12 15 9 10 19 20 21 21 23 26 24 25 17 25 27 33 31 28 18 30 33 26 28 27 22 21 17 20 19
20 21 22 23 24 27 30 33 34 37 40 36 20 14 6 17 14 19 10 13 20 20 22 17 18 20 18 20 20 24 10 10 24 18 31 30 24 22 29 31 27 22 21 25 19 16 15
19 20 21 22 23 26 29 32 34 35 39 36 16 8 17 17 19 13 9 10 10 17 24 17 13 15 10 17 14 16 19 12 37 28 16 34 23 21 27 27 30 28 28 25 13 22 15
19 20 20 22 24 26 27 30 34 34 32 35 18 22 8 17 7 10 15 15 19 13 20 11 18 15 17 13 10 14 17 30 37 28 14 12 19 20 26 23 29 32 29 26 22 18 19
20 21 21 23 25 26 26 28 31 33 28 27 11 7 19 16 17 17 15 15 19 11 17 15 12 14 16 13 13 9 17 15 35 30 19 9 10 21 19 21 19 27 29 28 25 17 16
23 23 24 24 25 27 26 27 28 29 26 15 8 6 12 8 13 14 16 14 19 18 8 17 17 10 14 15 13 9 16 26 26 25 23 8 13 19 29 24 22 26 27 29 30 21 22
25 25 25 25 26 27 26 26 27 26 24 10 6 7 12 22 22 16 12 7 14 16 12 16 17 15 16 14 11 14 16 15 10 22 20 19 8 13 17 22 19 18 31 29 29 29 23
26 26 27 26 27 28 26 26 26 23 16 7 8 15 10 12 16 12 11 15 16 18 16 18 12 18 19 15 19 20 23 20 18 21 18 14 12 9 16 17 21 19 16 28 26 24 24
26 27 27 27 28 28 28 26 24 21 14 15 18 15 6 7 13 13 19 19 14 13 15 19 25 16 25 21 22 22 26 23 20 17 15 12 12 9 11 13 18 12 13 13 21 23 23
28 30 29 28 30 29 28 27 24 21 15 16 20 18 5 4 14 18 17 17 21 19 13 21 19 25 17 22 13 15 16 14 17 18 14 10 10 7 6 8 9 13 14 16 9 15 20
29 30 30 29 31 30 28 27 25 22 17 17 21 21 12 6 9 20 16 25 12 11 12 16 10 17 16 11 9 14 5 12 12 14 13 11 10 7 9 6 12 6 14 4 16 9 21
30 31 31 30 30 28 27 26 25 21 17 17 22 20 21 8 20 20 13 11 18 13 8 13 15 22 12 5 8 11 9 10 6 17 13 11 9 11 8 6 3 13 19 10 13 6 19
31 32 31 30 29 27 27 26 24 21 18 14 21 17 20 11 24 28 23 22 19 13 7 15 10 6 3 4 4 6 6 7 7 4 7 11 11 10 11 9 2 25 12 8 9 17 21
32 32 31 29 27 26 26 26 24 22 17 16 20 17 12 23 17 22 26 26 28 25 24 9 11 16 4 4 5 5 12 7 13 7 9 6 4 7 12 11 5 13 8 8 12 13 15

GFSGBSN_850_spd_036.txt.gz
Wind_Speed
20 20 21 22 23 24 25 25 26 26 27 28 29 29 29 29 29 28 26 25 25 26 25 24 19 15 9 8 24 11 6 4 24 34 33 33 28 20 10 14 20 16 22 27 25 22 20
21 21 22 23 23 24 25 26 26 27 28 28 29 30 30 31 31 28 25 24 27 29 24 23 20 16 9 6 7 13 16 7 17 36 34 31 25 31 10 13 17 12 29 24 9 11 5
21 21 22 23 23 25 26 27 28 29 30 31 30 31 31 31 31 27 23 24 22 36 28 21 19 17 15 30 6 4 17 19 13 27 37 36 24 26 15 9 38 26 18 15 15 12 5
21 21 22 22 23 24 25 26 28 30 31 32 32 32 31 30 30 26 22 25 24 27 19 18 14 12 14 9 10 22 17 24 19 19 28 31 32 23 13 13 12 11 15 16 12 12 13
20 21 22 23 23 24 26 29 31 33 35 35 35 33 32 30 29 23 22 27 31 15 15 29 7 6 15 6 11 10 26 27 21 20 31 22 25 17 11 5 5 4 8 6 12 21 6
21 22 23 23 24 26 27 29 30 32 34 35 35 34 30 29 26 18 21 26 28 16 16 19 5 9 7 4 9 15 9 25 27 22 20 22 16 5 10 5 12 6 5 6 11 12 20
21 22 22 23 23 24 27 28 29 31 34 38 39 38 35 30 23 14 21 27 31 9 38 24 33 29 40 37 38 20 1 25 26 24 9 21 11 17 25 15 6 5 9 8 10 13 7
20 21 22 23 25 25 25 27 30 33 35 37 39 40 38 33 19 12 15 20 21 22 18 22 15 18 20 26 17 25 12 23 18 17 12 4 20 21 7 12 14 14 9 11 16 16 5
20 21 22 23 24 26 28 32 33 33 34 36 39 38 38 34 16 13 14 19 21 24 5 17 10 18 17 23 6 26 15 11 6 12 17 20 6 16 16 15 17 15 14 13 9 8 5
20 21 22 23 25 27 30 31 33 34 35 36 38 36 36 31 9 19 20 21 19 27 3 6 10 11 32 27 3 34 26 16 10 19 16 17 23 22 20 21 18 17 18 18 13 8 9
19 20 22 23 25 26 28 32 34 35 36 37 36 37 36 17 16 19 22 24 28 5 3 6 7 9 28 18 20 18 40 21 18 14 10 23 24 26 24 25 19 19 12 16 16 6 3
19 21 22 23 24 27 30 31 34 37 38 38 37 38 26 6 13 17 23 29 12 5 4 5 12 18 27 22 20 25 27 33 21 21 20 22 14 22 30 21 20 10 11 9 11 4 9
20 21 22 22 25 28 30 32 35 38 40 40 39 31 15 4 10 19 23 28 5 3 10 10 13 21 13 18 16 15 20 15 9 7 22 20 22 23 11 21 16 14 8 8 7 8 10
20 21 22 23 25 28 31 33 35 38 40 41 40 19 12 2 8 15 21 6 5 9 3 7 11 11 11 18 8 17 17 17 16 21 5 17 21 24 19 9 20 17 12 6 13 6 12
21 22 22 23 25 28 31 34 36 38 39 41 38 12 5 8 10 11 6 4 2 4 4 6 7 6 13 10 10 12 11 3 13 20 11 6 20 14 26 20 20 10 19 11 6 2 3
21 22 23 24 26 28 30 32 35 37 38 38 39 9 16 16 12 13 3 5 2 6 4 5 4 4 10 5 9 11 7 6 20 21 24 7 8 28 22 20 18 21 8 10 4 7 5
23 23 24 25 26 28 29 30 33 35 36 35 29 11 6 16 15 6 3 4 1 14 12 4 3 3 6 4 4 8 7 17 11 22 20 16 5 7 1 19 29 7 15 6 6 6 7
24 24 24 25 26 27 27 28 30 32 35 32 19 4 15 29 6 3 2 5 8 5 12 3 3 3 3 3 5 5 7 5 16 18 14 14 6 6 14 8 2 20 9 11 9 11 3
24 24 24 25 26 26 26 26 28 28 29 30 18 9 12 15 4 4 7 7 3 1 2 3 3 3 3 4 3 3 3 10 15 10 8 9 4 7 6 5 6 5 15 13 6 5 11
23 23 24 24 25 26 26 26 26 26 23 22 9 4 9 8 16 2 6 5 8 12 4 5 5 4 3 2 6 5 2 5 12 13 10 12 5 7 6 4 8 4 9 13 17 9 10
23 24 24 25 26 27 26 25 24 23 19 14 3 2 3 4 6 12 4 6 10 7 6 8 4 2 4 3 6 3 9 6 10 9 6 4 6 7 18 24 21 20 6 19 14 14 15
23 24 26 26 26 26 25 24 23 21 17 6 5 3 4 10 12 8 6 4 9 14 9 6 7 13 5 4 6 7 12 5 5 5 3 5 5 9 11 12 15 11 7 7 18 15 7
24 25 25 26 27 27 26 24 20 15 11 5 5 11 7 5 4 4 3 10 18 16 9 20 14 7 6 9 14 19 20 18 12 5 5 4 3 5 6 9 7 2 10 7 14 8 13
25 25 26 27 28 28 26 23 20 14 10 12 13 15 5 5 5 4 11 20 14 14 11 18 14 3 11 24 26 21 19 18 13 10 13 6 3 3 5 9 7 7 20 14 20 19 21
25 26 28 29 29 27 25 22 19 13 11 14 15 17 6 3 7 9 13 8 19 20 11 17 14 11 22 12 3 4 3 3 8 11 10 10 4 4 2 4 1 13 16 14 4 13 20
27 29 30 30 29 27 23 20 17 14 10 13 15 16 16 3 5 10 8 13 5 3 5 7 17 18 15 3 2 1 3 3 3 7 11 8 10 3 4 2 5 11 24 27 8 14 21
29 30 30 28 25 21 19 18 17 14 9 12 17 15 12 5 12 6 4 5 7 2 3 7 17 8 11 5 3 2 2 5 3 2 1 4 7 3 1 4 5 20 30 19 9 3 17
29 30 27 23 21 21 21 21 20 14 9 9 13 13 12 7 15 13 12 9 13 4 2 8 7 6 4 4 3 3 3 4 3 3 2 4 4 4 5 5 4 25 15 13 12 14 22
28 25 22 22 23 24 24 22 15 9 6 5 10 9 8 16 10 20 13 16 9 4 6 3 3 4 5 4 3 3 2 3 5 3 3 4 1 2 4 3 5 8 11 22 29 24 18

GFSGBSN_850_spd_039.txt.gz
Wind_Speed
18 19 20 20 21 22 23 23 24 25 26 27 27 27 27 26 26 25 21 21 23 22 30 26 21 14 10 7 14 7 8 2 33 33 35 33 31 17 8 10 8 16 14 9 22 20 18
19 20 20 21 22 23 24 25 27 29 30 29 29 28 27 26 27 25 20 20 23 28 21 21 19 14 6 4 3 6 16 3 28 37 37 36 24 26 13 4 16 6 19 21 19 21 12
20 20 20 21 22 24 24 25 27 29 30 33 33 31 29 27 27 25 20 21 25 28 17 18 26 15 10 17 6 3 7 9 22 35 40 39 13 24 9 1 25 17 11 8 12 18 5
18 18 19 20 21 22 24 27 29 31 32 33 35 35 32 29 28 26 20 23 26 21 15 19 26 9 9 8 3 6 8 10 17 33 31 33 24 30 6 5 7 3 5 3 9 9 11
18 19 20 21 22 24 26 28 30 31 32 33 35 36 33 32 28 26 22 25 25 14 14 26 12 9 8 9 21 12 19 15 18 24 32 14 30 7 9 2 5 3 4 6 6 12 6
19 20 21 22 23 24 26 28 30 30 31 32 34 37 34 33 30 24 23 27 21 10 18 11 12 6 11 27 26 17 17 10 20 18 20 10 13 5 2 5 11 6 4 5 7 5 13
18 19 19 21 23 25 25 26 28 31 33 34 33 34 36 33 29 18 23 21 20 4 24 8 17 6 19 27 15 16 11 3 15 16 7 14 6 19 29 20 4 4 4 5 5 8 8
18 19 21 22 22 24 26 28 30 31 33 35 35 35 36 35 25 11 16 17 15 11 13 8 9 5 25 22 7 28 21 4 9 7 6 5 18 21 7 7 12 8 6 6 10 5 5
18 19 20 21 22 24 27 29 31 33 35 37 37 37 36 34 15 11 10 17 16 22 3 10 6 17 29 17 4 12 35 12 5 10 14 13 5 15 12 14 13 16 15 8 9 5 4
19 20 21 21 22 25 27 29 31 34 35 35 35 36 35 25 6 13 10 17 23 9 4 5 9 12 25 6 7 19 25 7 5 9 14 15 20 13 20 17 15 18 13 14 13 1 4
19 20 21 22 23 25 27 30 31 32 34 35 34 36 28 11 10 13 16 21 13 0 3 4 5 12 13 15 13 19 20 9 2 9 6 17 13 17 20 22 18 13 8 9 10 3 3
20 21 22 23 24 26 28 31 32 33 34 35 34 32 19 11 10 14 19 22 2 5 4 2 4 9 10 19 8 15 16 15 5 6 14 16 16 16 25 15 16 5 6 6 1 2 11
21 21 22 24 25 27 30 31 33 34 35 35 33 24 13 8 12 17 22 9 4 2 5 4 3 6 5 8 7 11 13 16 8 9 7 10 24 15 9 19 13 10 9 2 5 6 15
23 23 23 24 26 28 30 32 33 35 34 34 31 13 7 12 11 15 19 5 3 2 1 3 5 5 5 10 4 8 6 4 14 6 3 5 13 21 14 13 17 15 12 6 9 7 12
22 23 24 25 26 27 29 32 33 34 33 34 30 11 4 9 14 13 10 3 4 2 3 4 6 3 3 2 2 8 5 2 6 14 6 6 8 13 22 15 18 9 21 9 5 2 3
22 23 24 25 26 26 28 30 31 32 32 32 33 15 0 10 14 9 4 5 2 3 4 2 1 2 4 4 4 5 2 2 3 11 14 3 9 9 12 26 17 15 10 11 4 9 10
23 23 23 24 26 26 27 28 30 32 32 30 25 8 6 18 19 2 3 5 2 1 5 2 1 2 3 1 2 3 4 4 6 8 6 6 5 11 8 11 29 11 11 8 7 4 11
21 22 22 23 25 26 26 27 29 30 31 28 16 3 11 16 7 4 2 7 4 2 4 2 1 5 2 3 4 5 5 4 5 6 3 3 5 7 10 12 17 24 8 7 13 13 1
21 22 22 23 25 26 26 26 26 25 25 26 17 8 10 10 3 4 8 5 4 3 4 2 3 4 3 4 3 5 6 5 5 3 0 2 3 5 7 3 5 3 17 9 6 6 10
21 21 22 23 25 25 25 25 24 22 20 20 7 4 6 8 8 3 4 5 4 9 4 5 5 4 2 4 6 4 5 5 6 7 11 7 3 7 5 1 6 8 9 9 10 7 8
20 21 23 24 24 25 25 25 23 20 17 13 3 1 2 4 2 3 3 5 7 5 6 10 4 4 3 5 4 6 7 5 7 5 2 3 6 7 16 20 18 18 19 17 7 11 14
19 22 24 25 26 26 25 24 22 18 15 7 4 4 2 8 6 5 3 2 8 5 4 4 5 16 13 7 9 7 7 6 7 9 4 4 4 4 7 13 18 9 11 14 15 8 6
20 22 25 27 27 27 25 23 19 13 10 5 4 7 4 4 2 2 2 3 6 13 7 8 8 13 9 9 15 19 19 21 9 10 8 5 3 3 6 4 1 4 9 9 4 13 3
21 24 26 28 28 27 25 21 16 10 8 11 10 10 3 3 4 3 7 17 14 10 8 15 20 5 10 22 30 22 23 22 18 17 16 4 2 3 4 5 6 8 10 9 21 19 18
23 26 28 29 28 24 21 17 14 9 9 12 13 12 4 3 6 8 11 10 16 15 8 12 19 13 22 15 4 4 2 3 13 17 15 9 2 4 2 3 6 5 11 10 6 16 20
26 28 29 28 23 19 17 16 15 10 8 10 12 12 11 4 4 7 7 11 5 3 4 6 14 15 6 2 2 2 3 1 6 4 8 4 8 3 4 0 3 5 20 31 11 13 19
28 29 26 22 20 19 19 18 16 9 6 8 11 8 8 5 8 7 4 5 4 4 3 7 10 8 8 2 2 2 2 4 2 4 5 2 2 8 9 1 2 12 22 15 7 3 24
27 24 22 22 22 21 20 17 11 6 4 4 6 7 8 4 10 10 12 12 5 4 2 7 6 3 5 5 3 3 3 3 2 3 3 4 3 1 1 4 2 20 9 7 2 10 21
22 22 23 23 23 22 18 13 8 4 1 0 2 5 6 11 8 11 11 10 9 9 7 5 7 4 4 3 4 3 2 4 9 3 6 5 3 4 6 2 7 4 10 12 16 16 26

GFSGBSN_850_spd_045.txt.gz
Wind_Speed
16 16 16 18 18 20 21 23 24 25 26 26 26 25 25 24 24 23 20 19 18 21 22 17 16 19 12 2 2 12 7 1 31 30 29 24 25 15 11 10 7 13 6 4 9 7 8
16 16 16 17 19 20 22 23 24 26 27 28 28 27 26 26 25 23 19 18 19 19 19 16 17 14 4 4 6 13 13 11 32 30 25 22 19 15 11 5 9 8 19 11 7 8 9
16 16 17 18 19 21 22 24 25 26 27 28 29 28 28 27 26 23 19 18 19 18 14 17 14 14 16 8 12 8 11 6 27 26 24 19 7 16 6 7 9 14 6 5 10 11 6
17 18 19 20 20 21 22 24 25 26 28 29 31 31 29 28 26 23 19 18 17 12 13 9 9 11 6 18 13 7 9 5 16 26 18 18 10 14 3 3 2 6 7 4 2 13 8
17 18 19 20 20 21 23 24 26 27 28 30 31 32 30 28 24 20 18 18 12 10 5 11 12 6 4 14 19 11 6 4 10 30 13 9 9 5 8 4 4 5 7 13 6 11 8
19 20 21 21 21 23 24 25 27 28 29 30 31 30 29 27 20 16 18 14 6 12 8 6 14 4 13 12 15 18 6 7 7 20 13 5 11 8 7 11 10 11 12 7 12 8 13
20 21 21 22 22 23 24 26 28 29 29 29 31 32 32 25 12 15 19 6 6 4 13 8 5 5 11 10 12 22 9 11 16 14 12 7 10 20 20 12 13 2 6 12 7 6 10
20 20 21 23 24 25 26 27 28 30 30 30 32 32 30 20 7 10 16 11 12 5 4 3 11 8 12 6 5 27 8 3 7 8 11 6 17 15 10 13 12 18 12 8 7 5 9
22 23 23 23 24 25 27 28 29 31 31 30 30 29 27 14 10 7 14 15 16 4 1 2 2 9 15 7 7 17 15 3 4 10 15 13 2 16 13 13 16 17 19 15 7 7 11
25 25 25 26 27 28 29 30 31 30 30 28 27 27 22 9 1 9 9 16 14 1 2 3 1 5 15 5 5 14 15 4 1 6 11 11 17 8 14 18 17 18 15 17 15 8 8
28 27 27 27 28 29 29 29 30 29 29 27 26 25 17 6 3 5 11 15 6 4 3 4 3 5 9 6 6 12 13 5 2 0 2 8 9 15 18 16 15 16 8 16 18 17 13
28 27 27 27 27 28 29 29 29 30 30 28 25 21 12 4 4 8 11 9 6 2 5 3 3 4 3 8 3 9 9 7 1 2 2 6 6 5 10 16 16 4 10 10 13 14 18
30 26 25 25 26 26 28 28 29 30 30 28 25 20 5 4 7 7 10 2 2 4 1 2 3 2 4 3 3 6 5 10 5 1 1 4 5 4 13 9 11 15 10 6 8 9 17
27 22 23 23 24 26 28 29 30 30 30 29 25 17 3 7 3 5 7 1 6 2 1 2 0 2 2 1 2 5 4 3 8 3 2 2 7 1 8 15 12 16 18 8 13 10 13
25 20 20 22 24 25 27 28 30 31 30 29 26 11 4 11 4 3 2 2 2 3 1 3 2 4 4 3 1 1 2 3 1 4 1 2 6 6 9 9 8 16 19 20 15 4 10
19 16 18 21 23 24 26 28 30 30 30 29 24 5 9 13 6 2 1 3 2 2 1 3 4 3 4 0 2 1 3 5 6 2 5 3 7 2 8 9 14 13 13 17 13 18 19
15 15 18 20 22 23 26 28 29 31 31 28 14 3 14 14 6 3 3 1 3 4 1 5 5 4 6 4 6 5 4 4 7 7 2 4 4 2 8 4 10 14 14 16 18 19 11
14 16 18 20 22 23 25 27 28 29 29 26 11 1 17 9 5 4 2 6 6 4 1 3 3 7 8 7 6 6 8 5 12 10 4 4 3 5 13 17 22 17 11 22 14 23 19
15 17 18 20 22 24 25 26 27 25 24 25 9 6 12 9 3 4 5 4 4 4 4 3 3 5 5 8 4 8 6 8 13 9 6 7 3 5 11 11 18 11 17 17 24 21 23
17 18 20 21 23 24 25 25 23 22 18 16 6 3 7 13 7 3 5 4 6 7 2 4 4 2 3 6 5 2 6 9 14 9 8 7 4 7 12 17 11 10 12 16 20 21 21
19 20 21 23 24 25 24 22 19 17 13 10 7 3 4 4 6 6 6 5 7 6 7 8 4 7 6 6 5 8 7 6 12 13 9 7 7 8 14 20 24 26 26 26 20 23 22
20 22 24 24 24 23 21 18 15 13 12 9 4 3 3 2 3 5 1 2 6 6 2 5 9 11 9 7 10 7 7 8 11 12 11 8 6 9 18 23 23 28 29 26 23 24 19
23 24 24 23 21 20 18 16 12 10 9 5 3 1 0 2 3 3 3 4 8 14 8 15 11 1 5 10 17 21 17 17 14 9 12 9 5 7 21 17 17 22 30 25 21 17 21
24 24 22 22 21 20 18 15 10 7 5 4 3 3 0 2 2 4 8 14 11 11 7 12 13 5 6 7 11 21 25 25 25 23 19 9 11 7 14 15 11 9 8 26 12 7 2
23 22 22 22 22 21 18 14 7 6 4 4 4 1 1 2 4 7 11 8 13 10 8 9 7 9 16 11 4 6 4 6 15 23 21 18 8 6 5 7 12 11 5 23 16 8 10
22 22 23 23 23 21 16 10 6 4 4 2 3 1 3 2 1 6 5 9 4 5 6 3 11 9 3 3 3 4 4 4 2 2 19 18 13 7 4 7 5 5 4 6 8 6 12
21 23 24 24 22 17 12 6 4 3 5 5 4 1 2 3 4 7 2 5 6 4 4 7 13 5 2 2 3 3 2 2 4 8 8 9 5 13 13 8 9 11 11 8 6 4 9
21 24 25 22 16 13 11 9 5 5 6 6 4 3 1 3 7 6 9 6 6 4 2 8 5 1 3 3 3 3 3 3 2 3 6 6 6 7 8 6 9 23 5 4 6 8 6
21 25 22 17 12 12 11 10 7 10 7 5 3 1 2 5 3 7 6 6 6 9 7 4 4 5 3 3 2 3 2 3 7 4 3 2 3 2 2 1 16 8 19 14 10 9 13

GFSGBSN_850_spd_048.txt.gz
Wind_Speed
16 16 16 17 18 18 19 20 21 22 23 24 24 24 24 24 21 20 19 16 16 17 16 14 13 12 3 3 3 9 7 4 24 27 28 25 27 20 15 15 9 17 8 5 6 8 8
15 16 16 17 17 18 19 21 22 24 25 26 25 25 26 26 23 21 19 16 15 15 14 14 9 5 6 5 4 9 9 12 23 25 25 24 21 16 10 7 15 4 18 9 5 10 7
17 17 18 18 18 19 20 22 23 25 26 26 27 27 27 27 25 22 18 16 15 13 8 7 11 18 10 5 4 4 4 10 18 20 24 21 8 18 6 10 14 14 6 10 17 19 10
17 18 18 18 19 19 21 23 24 26 27 28 28 28 27 26 23 19 17 15 11 7 5 5 10 10 6 8 8 5 3 11 16 15 18 16 11 20 9 2 7 15 15 13 15 18 13
18 19 19 19 19 20 22 23 25 26 27 28 28 27 26 24 21 17 16 13 3 9 6 7 6 3 5 5 8 6 3 9 16 14 13 14 12 14 15 12 11 12 12 18 10 15 12
19 19 20 21 21 22 23 24 26 27 27 28 28 27 25 21 15 15 16 7 3 12 3 6 7 3 8 6 10 7 4 14 14 20 11 16 14 11 13 14 13 15 17 13 16 13 18
22 22 22 23 24 25 25 26 27 27 27 27 27 26 24 18 9 12 15 5 3 2 7 6 6 5 5 3 8 8 6 7 11 23 14 17 15 19 19 18 16 8 12 16 14 13 14
22 22 22 23 23 24 25 26 25 25 25 25 25 26 23 13 6 8 11 4 5 1 2 2 2 4 5 3 1 11 2 8 13 17 19 11 19 18 15 14 15 16 11 13 9 8 11
25 24 23 23 24 24 25 26 25 26 25 25 25 25 21 11 4 7 5 7 10 1 6 5 2 2 6 2 5 10 6 3 12 16 18 17 5 19 14 15 17 18 18 14 11 4 14
25 26 25 24 25 26 26 26 25 26 25 24 23 22 18 7 1 7 3 14 11 3 5 8 6 2 5 3 2 7 9 2 7 11 15 17 15 6 17 18 17 18 17 14 15 12 12
27 27 25 25 24 24 25 25 26 26 26 24 23 21 13 2 1 4 8 13 4 1 5 5 4 2 3 2 4 4 6 3 5 7 7 11 13 19 18 13 20 16 12 13 14 17 16
27 26 23 23 22 23 24 25 26 27 27 24 22 19 9 2 2 4 7 8 1 7 4 5 3 1 2 4 2 5 3 0 1 6 11 16 1 7 20 19 11 4 15 13 14 14 18
25 23 19 19 21 23 24 25 27 27 27 25 22 16 5 2 3 4 5 1 6 7 3 6 3 2 0 1 1 4 3 2 5 10 14 13 15 13 12 13 21 17 13 9 12 14 20
25 22 17 19 21 23 24 26 27 28 28 26 22 10 4 2 2 3 2 7 7 4 1 3 2 3 5 2 3 1 2 5 1 6 4 10 13 15 1 17 13 23 21 12 20 14 20
24 17 16 19 21 22 24 27 28 28 27 24 16 5 5 6 3 2 8 6 4 2 3 3 5 8 6 5 5 4 3 2 1 4 6 7 10 3 3 4 9 18 22 25 23 16 13
16 15 16 19 20 22 25 28 29 28 26 25 10 4 8 9 1 4 6 5 2 3 2 4 9 3 6 6 5 3 4 6 5 1 5 3 7 4 2 9 17 18 16 18 17 23 23
15 15 17 19 21 23 25 28 28 27 24 22 6 3 10 7 3 7 5 3 3 3 4 5 7 9 8 8 7 9 3 7 4 5 3 2 3 8 3 11 17 16 19 15 16 19 18
16 16 17 20 22 25 26 26 26 25 23 21 6 1 14 6 2 2 3 5 5 5 4 7 6 12 12 10 11 11 9 5 8 7 3 1 4 8 12 10 11 11 15 18 17 24 20
16 18 19 21 24 25 24 24 22 21 21 16 6 4 11 7 2 5 6 4 3 7 5 6 7 5 8 11 7 9 6 3 10 9 3 4 4 6 8 17 16 12 20 15 16 21 23
18 20 22 24 24 23 22 20 19 18 17 9 4 1 6 15 14 8 5 8 6 3 6 6 9 10 12 12 12 6 8 6 11 13 5 3 11 12 12 14 11 10 12 14 17 17 20
20 22 23 23 22 22 20 19 18 16 13 9 7 5 5 4 8 6 3 3 4 6 5 8 5 8 9 7 14 16 12 11 13 14 13 8 10 14 17 16 16 18 19 19 20 18 22
22 22 22 22 22 21 19 18 16 14 11 9 4 3 4 5 4 5 5 5 7 5 2 6 8 10 7 7 14 7 10 15 15 15 17 15 13 13 17 16 18 23 23 26 25 25 25
22 21 22 22 22 20 18 15 13 12 11 5 6 5 3 0 1 3 3 2 5 11 4 11 14 9 8 12 17 22 23 19 15 13 17 15 10 12 18 18 20 23 21 27 30 27 27
21 21 22 23 23 20 16 12 9 9 8 7 6 5 1 3 3 4 7 9 9 9 8 12 8 5 4 12 14 17 23 23 26 21 22 14 14 11 14 16 19 22 25 27 31 30 28
20 21 23 23 22 18 13 9 6 8 5 6 5 5 1 1 4 4 9 8 10 8 8 6 6 9 15 17 6 7 11 12 23 25 23 20 12 7 10 12 17 27 24 22 30 30 24
19 22 23 22 18 15 12 9 7 6 6 6 5 4 1 1 1 5 6 8 4 8 7 3 8 10 7 3 3 4 3 3 3 5 19 23 19 11 10 10 15 8 18 40 36 18 18
19 22 22 19 14 13 12 11 8 7 8 8 3 3 1 2 3 4 3 3 4 4 4 9 12 4 2 1 3 3 3 1 3 4 5 14 15 15 15 13 13 14 20 33 9 10 14
19 21 18 15 12 10 10 10 7 8 6 7 3 4 3 2 5 3 3 5 6 5 3 9 7 2 2 2 2 2 3 2 3 2 3 7 6 7 9 9 15 8 17 6 4 13 9
17 19 16 12 10 9 7 8 5 8 6 5 1 2 2 1 3 4 4 6 7 6 7 6 5 5 3 3 2 3 2 3 7 2 1 2 4 2 5 4 4 17 25 16 10 6 4

GFSGBSN_850_spd_051.txt.gz
Wind_Speed
14 15 15 16 16 16 17 19 21 22 22 22 23 23 24 24 23 21 19 16 15 15 14 12 11 9 5 6 1 6 5 11 15 27 22 26 23 22 18 18 18 18 16 1 5 2 6
16 16 17 17 17 18 19 20 22 23 24 24 24 24 25 25 24 21 18 15 14 15 14 9 6 2 3 10 3 6 3 7 20 27 23 24 20 21 15 17 15 11 18 5 10 11 11
15 16 16 17 18 19 20 21 23 24 25 25 25 24 24 25 25 21 17 15 13 11 8 4 7 7 3 4 3 3 1 8 18 22 22 22 18 19 11 14 16 20 12 16 14 16 9
17 17 18 19 19 20 21 23 24 25 25 25 25 24 23 24 23 19 17 15 10 9 2 8 5 2 2 1 1 2 3 10 16 18 18 18 17 15 21 12 7 17 18 15 20 18 19
18 18 19 19 20 21 22 22 23 23 24 25 25 24 23 21 20 16 16 13 2 5 5 7 0 4 8 2 2 2 5 12 15 16 16 16 14 18 21 13 13 15 15 21 19 23 21
21 21 21 21 21 22 23 24 25 25 25 24 23 23 21 20 16 14 16 7 2 5 1 1 5 8 3 2 4 1 6 10 17 15 16 15 14 16 17 16 15 17 18 17 19 16 21
23 23 22 22 22 23 24 24 24 24 24 23 23 22 18 16 11 11 12 9 5 5 10 8 4 2 4 3 3 3 8 13 15 18 17 24 16 19 22 20 21 17 16 20 19 15 16
24 24 25 24 23 23 22 22 23 23 23 22 22 22 17 13 7 6 9 5 4 5 9 7 4 3 1 4 5 4 7 14 16 18 21 14 21 20 18 17 19 18 14 15 16 14 10
25 23 24 23 22 22 22 23 24 24 23 22 22 22 16 10 4 4 2 2 5 5 8 11 7 5 2 6 2 2 5 12 12 19 22 22 13 20 21 19 17 18 18 17 13 11 16
27 24 23 23 22 21 22 23 23 24 24 23 22 20 13 4 1 4 2 7 7 4 6 13 10 5 5 4 9 2 2 8 10 16 20 21 22 11 22 21 17 19 18 18 15 13 13
31 26 24 21 20 22 22 23 24 25 25 23 21 19 11 5 4 5 6 8 3 4 6 7 8 2 3 9 4 8 3 8 14 14 12 17 18 21 18 22 17 18 16 17 17 17 16
28 25 24 18 19 21 22 23 25 26 25 23 21 17 6 2 3 4 6 6 2 7 4 7 4 4 9 4 4 2 3 6 8 8 10 19 10 13 19 16 17 18 17 15 14 15 17
26 22 17 17 19 20 22 25 26 26 25 23 20 13 2 5 3 7 7 6 7 9 3 8 5 6 4 3 7 4 4 11 11 11 15 17 20 13 16 17 22 16 15 13 14 15 18
21 16 15 17 19 21 24 26 27 26 25 22 18 6 5 2 6 6 5 10 10 4 3 5 2 5 9 3 8 4 8 10 10 13 15 13 16 21 17 21 18 26 22 13 21 15 21
16 16 16 18 20 23 26 28 27 24 23 21 9 5 1 6 6 3 10 9 5 7 6 2 7 11 12 7 6 4 10 12 5 4 14 10 18 7 3 8 18 17 24 27 25 22 19
17 16 17 19 22 25 27 28 26 22 21 21 6 3 5 7 3 4 9 12 4 8 7 6 11 6 10 8 6 8 7 4 3 6 9 6 10 10 9 6 16 16 17 18 18 25 26
16 17 19 22 24 26 27 26 24 20 20 13 4 7 5 8 4 10 8 6 4 6 7 7 10 12 9 11 5 13 6 8 4 5 8 12 8 15 9 12 19 16 19 20 19 18 21
18 19 21 23 25 25 25 24 21 21 20 11 4 4 10 4 12 3 7 5 3 7 3 4 6 8 13 15 13 11 14 9 7 5 10 5 8 15 18 13 14 23 13 22 16 22 17
20 21 22 23 24 24 23 22 19 19 20 13 8 3 11 6 3 1 4 2 3 6 5 6 8 9 10 8 8 11 15 6 5 7 4 4 10 12 17 15 16 16 17 17 17 21 25
22 22 22 22 24 24 23 20 18 16 15 7 7 2 6 13 8 5 2 5 4 6 6 6 10 12 12 15 13 7 12 5 6 10 6 2 13 14 15 5 12 9 21 21 18 16 20
22 22 22 23 23 23 22 19 15 13 12 9 7 5 5 3 7 5 3 3 4 8 11 9 2 6 9 7 10 14 14 10 10 12 9 10 16 16 19 18 13 15 13 12 17 18 22
21 22 22 23 24 23 20 16 13 11 11 8 6 2 4 8 3 2 7 8 8 9 4 5 6 9 8 9 12 17 6 11 16 11 15 14 16 16 22 15 17 19 18 19 19 20 22
21 22 23 23 23 20 17 14 12 10 12 6 6 4 3 4 6 5 6 6 7 6 2 7 6 7 9 11 11 17 18 17 15 15 15 16 14 14 20 19 19 21 21 21 22 22 21
20 23 23 22 20 17 14 11 11 12 15 8 5 5 2 6 5 6 5 6 7 7 9 10 6 7 5 13 17 21 24 22 22 22 23 17 15 13 15 19 22 16 18 20 23 23 22
20 23 23 20 17 14 12 10 10 11 11 9 5 4 4 4 3 2 9 8 7 5 7 9 6 8 14 15 7 8 12 15 21 23 21 23 17 8 12 15 19 22 16 20 8 16 17
19 21 21 16 16 13 12 11 10 10 10 10 5 4 4 2 8 4 5 6 5 7 7 3 10 9 10 4 3 4 3 4 4 4 15 23 17 10 12 17 22 22 10 12 9 20 22
17 19 17 13 13 11 10 10 8 9 10 11 3 5 3 2 8 5 5 3 3 6 3 9 11 3 6 1 3 2 3 3 4 5 7 7 14 15 17 18 16 19 9 8 9 15 29
15 17 15 11 10 9 6 7 5 5 6 10 2 5 3 4 7 4 2 3 4 1 3 10 4 3 2 2 2 3 3 2 3 3 7 4 6 9 12 12 19 10 5 5 13 29 38
13 15 13 10 7 7 3 5 5 6 2 6 2 3 2 2 4 4 3 2 2 4 5 6 7 3 1 1 1 2 2 3 5 4 2 3 4 4 4 2 8 3 12 22 21 28 43

GFSGBSN_850_spd_057.txt.gz
Wind_Speed
17 18 18 18 19 19 20 22 23 23 23 22 23 24 24 23 22 21 20 17 16 15 14 12 12 10 7 2 8 3 5 5 12 20 26 21 15 24 15 15 20 16 17 26 6 18 28
20 19 19 20 20 21 22 22 22 23 24 23 23 23 23 23 22 21 19 16 16 14 12 9 9 8 4 4 2 2 5 4 10 21 27 21 13 20 20 20 15 22 24 22 18 17 27
22 22 22 22 22 22 22 23 24 24 25 25 24 23 23 21 21 21 18 16 16 11 10 7 3 2 7 12 1 5 5 9 7 17 24 24 22 23 18 10 24 22 12 14 9 11 7
23 23 23 23 23 23 23 23 24 23 24 24 23 22 22 21 20 19 17 16 13 8 5 2 1 4 8 3 8 10 5 10 10 13 21 18 16 23 25 19 20 10 8 6 10 7 9
24 25 24 23 23 24 23 23 22 23 24 25 25 23 23 20 18 19 15 14 8 5 3 4 1 5 8 6 2 4 8 10 10 14 18 20 22 24 18 6 6 7 6 8 13 15 6
25 26 26 25 24 24 22 22 23 23 24 25 25 25 24 21 18 16 12 11 6 6 5 6 6 10 9 10 5 3 5 8 14 14 18 23 21 5 6 3 8 9 7 8 12 17 15
25 25 27 24 23 23 21 22 22 23 25 26 27 26 23 20 17 13 8 8 6 1 11 11 4 8 6 3 1 4 7 7 13 17 9 15 4 9 10 10 12 16 15 13 11 16 17
26 26 26 24 23 21 21 21 22 24 26 27 26 25 23 18 13 7 9 7 7 6 9 18 23 21 6 2 4 6 7 9 10 7 9 6 13 11 10 15 16 19 16 16 15 13 8
24 24 23 23 19 19 21 22 24 26 27 27 26 24 21 15 8 1 8 6 10 8 6 15 20 18 14 9 10 12 9 13 9 10 11 11 11 19 16 16 17 16 11 12 11 16 8
21 23 22 20 20 21 23 25 27 28 28 26 24 23 20 12 2 6 11 2 9 7 3 5 12 6 7 1 5 10 6 4 6 11 12 10 18 17 17 17 13 10 10 12 13 8 2
19 20 20 21 22 24 26 27 29 28 27 24 23 23 13 9 6 6 12 9 12 5 3 10 8 7 4 9 4 4 3 4 8 10 6 10 14 16 18 15 17 13 10 10 10 7 7
20 21 22 24 26 28 29 28 28 28 26 22 20 19 6 3 2 7 14 12 8 2 5 6 7 7 4 8 9 8 5 7 11 8 11 11 22 11 14 16 11 12 10 11 6 4 7
21 22 24 26 28 29 30 29 27 26 24 21 17 11 4 6 4 9 11 12 2 3 10 6 7 7 10 8 6 3 6 7 4 1 5 9 12 10 13 9 11 7 2 3 3 5 8
24 25 26 28 29 30 30 29 27 25 24 23 13 2 7 3 6 13 9 4 4 8 13 5 8 5 1 7 5 8 1 6 7 9 5 5 7 11 7 6 4 7 9 5 8 6 7
26 27 28 28 29 30 30 29 28 26 23 23 9 2 2 7 9 6 8 3 6 10 14 13 2 2 3 4 1 4 2 6 7 13 1 6 6 16 12 14 8 6 5 9 5 12 4
28 28 28 29 30 30 29 28 27 25 21 19 11 1 2 6 4 5 3 3 8 14 11 9 8 8 8 12 1 7 6 5 4 9 10 7 6 7 13 5 8 8 4 5 4 6 6
28 28 29 30 30 30 28 26 25 23 19 12 8 5 3 6 2 7 2 5 6 14 13 7 7 6 9 9 10 11 12 15 17 11 11 5 2 11 9 4 3 1 2 1 0 1 4
28 29 30 31 30 29 25 22 22 23 18 8 4 1 13 4 4 3 4 5 12 14 17 9 5 7 11 12 8 7 9 9 11 14 6 8 2 6 10 18 15 11 3 0 3 7 3
27 28 31 31 30 27 22 19 18 18 21 18 11 0 13 10 4 4 8 16 15 12 15 13 10 11 9 7 5 8 11 17 23 9 5 7 4 5 10 6 5 6 6 6 4 4 10
27 28 30 30 29 25 20 16 14 14 17 16 7 2 11 18 19 14 6 12 12 21 15 12 9 12 12 9 8 4 5 5 13 13 9 8 3 3 6 7 9 12 19 17 5 2 5
26 27 30 29 26 22 19 14 10 12 14 12 7 5 7 4 7 8 13 9 11 9 12 18 7 13 11 6 8 5 10 9 14 9 6 4 4 7 12 13 14 16 18 19 13 9 4
24 26 28 26 24 20 18 13 10 12 13 15 5 5 7 9 10 13 8 8 10 11 9 9 10 13 10 5 7 11 11 9 5 6 6 3 4 7 13 12 17 17 17 20 19 16 15
23 24 25 22 21 18 17 14 11 11 7 8 8 6 1 8 9 6 3 5 10 9 8 9 6 4 6 10 14 19 21 20 15 8 3 1 3 5 7 8 13 12 12 16 18 18 11
21 22 23 19 18 16 15 14 11 14 16 12 5 7 5 4 6 5 7 4 6 2 2 6 5 6 10 15 20 19 21 19 18 14 16 7 5 5 4 5 3 9 8 14 18 17 18
19 20 20 16 15 13 13 14 10 10 14 18 10 8 7 4 7 5 9 9 10 4 1 4 8 9 11 13 4 6 4 4 6 6 5 8 4 4 3 4 9 14 12 10 7 10 10
18 18 18 15 13 10 10 10 13 10 11 14 9 7 5 5 5 3 3 8 5 5 4 2 6 5 12 8 1 3 3 4 4 9 12 10 4 2 2 4 6 6 6 19 5 9 12
15 16 17 14 11 8 7 8 9 9 11 13 13 10 7 5 5 7 6 3 5 4 2 1 6 4 10 3 4 3 2 2 4 6 6 5 4 3 7 6 6 12 25 15 3 5 29
13 13 16 13 11 9 5 5 6 7 8 7 8 17 7 4 2 5 0 3 3 4 2 6 2 9 6 4 3 2 2 2 2 2 5 4 5 3 5 3 5 30 17 6 14 33 24
13 11 13 12 11 10 7 5 4 5 6 7 9 13 13 3 8 10 6 6 3 2 0 5 6 2 3 1 1 0 1 2 2 2 2 1 2 3 3 5 21 16 15 24 21 27 33

GFSGBSN_850_spd_060.txt.gz
Wind_Speed
20 20 20 20 21 21 21 21 22 22 22 22 22 22 21 21 20 19 18 18 16 16 14 12 9 8 6 4 8 2 1 3 13 17 19 24 19 12 5 8 18 11 20 22 21 27 31
21 21 20 20 21 22 22 22 23 23 23 23 23 24 23 22 19 19 18 16 15 16 13 11 9 6 4 4 2 1 4 3 11 18 22 28 16 25 8 13 9 11 14 15 26 25 16
21 22 22 21 21 21 21 21 22 22 23 24 23 24 24 22 20 19 17 16 14 15 10 8 5 4 6 8 3 4 7 4 4 13 24 30 23 6 3 7 25 20 9 9 17 29 12
22 22 23 24 22 22 22 21 20 22 23 24 24 25 24 22 21 20 17 15 13 11 7 5 2 3 7 6 8 12 9 7 8 4 17 24 23 15 11 13 10 4 3 4 8 24 15
23 25 24 26 22 22 22 21 22 23 23 24 25 25 24 22 19 19 17 14 10 7 4 2 4 5 7 8 7 7 15 13 12 7 8 18 8 14 12 4 5 6 2 4 9 16 11
21 25 25 24 22 21 19 20 21 22 24 25 26 25 24 22 18 17 15 11 8 6 5 4 7 7 8 8 9 7 8 12 16 12 12 8 8 3 2 4 4 3 3 4 5 5 10
21 21 23 22 20 19 20 21 23 25 26 26 26 24 23 21 17 15 9 6 3 3 6 9 4 5 6 4 5 7 8 9 17 11 5 7 3 6 9 6 6 3 4 9 16 13 6
19 21 21 19 19 21 21 23 25 26 26 26 25 24 23 20 13 9 7 4 6 7 8 15 20 22 19 13 2 7 11 7 9 5 4 3 5 8 5 6 7 5 7 14 15 8 6
19 19 20 21 21 22 24 26 27 28 27 25 24 24 23 16 4 3 4 5 7 11 5 13 18 16 13 9 3 5 13 7 5 5 5 6 7 9 9 8 8 8 7 12 12 3 8
22 22 22 23 24 26 27 28 28 28 27 24 22 21 21 8 3 5 11 10 7 7 4 6 6 5 10 9 2 5 8 3 2 10 6 6 16 11 9 11 6 7 7 14 11 2 3
23 23 24 25 27 28 28 28 28 28 26 23 20 20 16 7 2 6 12 9 7 3 2 2 4 8 12 8 6 6 3 1 1 3 4 6 5 8 11 13 7 13 13 11 2 1 4
25 26 26 26 27 29 29 29 28 27 26 24 19 17 10 2 5 10 10 7 7 5 2 3 5 4 5 2 2 7 2 2 2 1 0 7 11 3 7 12 10 12 6 5 5 3 2
28 28 28 28 29 29 29 29 28 27 26 23 14 9 5 1 7 9 8 9 5 3 7 2 4 4 5 4 3 5 3 1 3 3 4 5 5 4 4 3 5 5 6 3 4 2 5
29 29 30 30 30 30 30 29 28 26 25 20 5 4 10 6 8 9 13 4 7 6 6 5 3 5 5 4 3 4 4 3 2 0 0 3 6 4 7 2 5 3 9 6 6 2 4
28 29 31 31 30 30 29 27 26 25 23 15 4 6 6 7 9 9 9 5 2 5 7 9 6 9 9 7 4 2 6 10 4 5 5 2 4 6 3 4 3 3 2 7 6 1 4
28 30 31 32 30 28 27 25 25 22 16 12 7 3 7 10 7 6 5 4 4 8 9 6 6 4 8 8 7 6 8 9 4 8 3 2 3 3 6 10 9 1 3 3 4 4 4
29 31 33 32 29 27 25 24 24 19 12 10 7 3 15 4 0 3 3 1 7 22 19 8 7 7 5 5 5 7 7 7 8 7 14 6 4 7 5 5 3 7 6 5 5 5 5
29 30 32 31 29 26 24 22 21 19 15 10 5 4 17 5 4 4 4 5 9 14 21 9 10 9 5 8 6 4 5 6 16 7 4 4 3 3 6 5 4 5 8 7 4 1 3
27 28 30 29 27 25 23 20 19 19 22 14 5 7 28 13 4 4 7 9 16 9 8 6 9 8 6 6 5 5 5 17 21 10 5 5 4 5 13 6 8 6 8 7 4 3 3
26 27 29 27 25 24 21 17 17 16 17 15 5 4 10 23 21 6 4 8 4 17 19 15 8 11 8 7 5 5 8 12 19 14 15 7 3 4 4 4 4 7 14 9 5 3 3
24 25 27 25 23 22 20 16 15 15 15 8 7 3 4 3 8 11 11 5 11 6 9 21 7 9 5 6 7 5 7 8 9 19 10 4 2 4 2 4 5 8 14 11 5 4 3
22 23 24 22 21 20 19 16 17 13 11 17 5 5 8 14 11 13 6 5 8 5 6 3 4 5 6 4 1 4 5 4 2 10 7 5 3 5 7 8 9 8 10 12 9 5 5
21 21 22 19 18 17 18 16 17 18 9 9 9 9 3 9 6 5 3 3 5 4 8 10 5 2 5 4 12 14 15 11 9 1 2 0 2 3 3 7 8 7 4 5 8 3 0
19 19 20 17 15 14 16 14 17 19 16 11 11 8 4 2 3 1 5 8 3 4 2 7 9 4 7 14 19 12 9 12 11 13 5 4 5 3 3 4 3 6 7 9 11 3 6
17 17 18 15 13 12 12 13 14 14 14 12 12 8 6 2 4 6 9 5 14 4 2 6 5 5 10 10 4 5 5 5 5 5 9 6 4 2 3 4 7 13 7 7 7 6 12
16 15 17 14 11 8 9 9 11 13 12 10 11 10 4 2 3 2 4 6 2 2 5 5 6 5 11 6 3 4 3 2 5 10 9 7 5 4 2 3 5 1 14 23 17 4 17
15 13 15 13 11 8 6 6 7 9 9 9 12 11 3 2 1 3 4 2 2 2 2 1 1 5 7 3 3 3 1 1 1 4 5 4 4 3 3 4 4 8 21 21 4 4 24
14 12 12 13 11 10 7 4 4 5 7 5 6 11 9 3 1 3 3 5 5 4 3 1 4 5 3 4 2 1 2 1 1 1 0 1 2 1 3 3 5 17 7 2 13 22 20
13 12 10 11 10 9 9 7 5 4 5 6 5 5 7 4 7 8 7 6 8 7 7 3 5 4 4 3 2 3 2 2 3 1 2 3 4 3 6 5 10 12 13 20 15 23 24

GFSGBSN_850_spd_063.txt.gz
Wind_Speed
19 20 20 21 20 20 20 20 20 21 21 22 21 22 22 22 22 20 18 16 17 16 15 12 11 9 7 5 7 4 6 14 21 21 21 21 22 11 6 6 9 8 6 10 15 21 19
18 17 19 20 20 19 20 20 20 20 21 21 22 22 22 21 21 21 19 16 16 15 15 10 10 9 5 3 6 6 4 7 18 22 22 24 18 21 6 3 3 4 8 15 15 14 12
21 20 20 21 21 19 20 20 19 20 21 22 23 23 23 22 21 19 18 16 16 14 12 9 5 5 7 6 6 8 2 4 5 15 23 26 10 16 1 3 9 18 9 10 7 14 3
19 19 21 22 19 18 19 19 20 21 22 23 24 25 23 22 20 20 17 16 14 12 10 6 2 3 7 5 9 11 8 6 4 5 14 22 23 8 2 7 6 4 4 1 3 12 4
18 20 20 22 20 19 18 19 21 22 24 25 25 24 23 22 20 19 16 15 11 8 6 4 5 4 5 10 12 11 11 9 8 8 8 6 19 6 3 1 4 6 1 1 1 19 4
15 17 19 19 18 19 20 21 23 24 25 25 24 23 23 22 19 17 13 10 5 3 4 4 6 5 6 6 9 8 12 14 9 13 7 9 8 4 2 4 4 2 2 0 2 4 3
19 20 19 19 20 22 23 25 26 26 26 25 23 21 22 21 17 13 6 2 2 2 5 8 2 7 3 4 8 9 12 15 11 12 5 8 4 6 7 8 7 3 3 4 2 6 6
21 20 21 21 22 23 24 25 25 25 25 24 22 21 21 20 13 5 4 4 10 3 8 14 16 20 19 11 4 9 14 9 9 4 4 5 4 8 5 4 5 5 4 4 7 5 4
22 23 23 24 24 25 26 26 26 25 25 23 21 20 20 16 3 3 5 13 13 8 2 9 13 13 11 6 4 3 12 9 5 5 5 5 4 6 5 3 3 3 6 3 6 5 2
24 24 25 25 26 26 27 28 27 26 24 22 21 19 18 8 3 4 7 10 8 2 4 6 4 7 9 5 1 7 7 4 3 9 6 4 7 6 5 5 6 6 5 5 5 1 3
26 26 26 27 27 28 29 28 27 26 24 22 19 17 14 3 2 7 10 4 5 1 1 1 3 9 10 8 6 5 8 5 6 4 6 5 2 5 6 8 6 10 6 7 4 4 2
27 28 29 29 29 28 29 29 27 26 24 22 16 13 8 4 6 8 6 5 1 5 1 2 2 3 6 3 2 5 4 5 4 4 2 5 3 5 7 6 10 3 1 4 4 4 1
27 28 30 30 29 29 28 28 27 25 22 16 9 9 6 6 7 8 8 3 4 2 7 7 2 3 4 2 2 2 3 3 3 4 1 2 3 2 2 2 3 5 6 2 2 2 5
27 29 30 31 30 29 28 26 25 23 19 9 8 10 10 8 6 8 10 5 8 6 4 5 3 7 6 3 1 5 5 7 7 2 3 3 1 2 4 1 5 5 9 6 5 5 4
28 29 31 31 30 28 26 25 22 20 14 6 7 8 9 7 7 12 4 6 2 5 6 7 3 8 8 7 5 4 7 8 6 5 4 2 3 5 1 2 2 3 3 5 8 2 3
28 29 30 30 29 26 25 24 21 19 10 7 5 4 14 7 9 12 7 5 3 10 7 6 5 5 7 8 5 5 7 6 7 10 3 1 2 2 4 6 8 5 3 2 3 6 4
26 27 30 29 27 26 24 24 20 18 10 10 8 3 12 5 8 9 4 3 4 16 12 7 4 5 3 4 5 4 8 3 12 6 11 3 3 6 2 6 5 7 6 4 3 3 6
26 27 28 27 26 25 23 23 24 18 12 7 13 4 15 3 8 3 3 5 7 15 17 8 5 6 4 7 7 4 6 7 19 6 4 3 4 3 4 6 11 16 4 4 4 5 3
25 26 25 24 24 23 22 21 23 19 15 8 7 11 25 6 4 3 4 5 13 11 8 6 8 7 6 5 5 6 5 12 21 7 3 4 4 3 4 6 8 7 7 5 2 2 2
23 24 24 22 23 22 20 21 20 18 11 6 4 4 10 23 7 5 3 6 4 15 12 9 6 6 6 8 8 4 4 6 11 16 16 5 4 5 4 3 3 3 5 5 5 4 5
21 22 22 20 21 20 21 22 22 14 10 6 6 3 4 3 8 9 6 3 5 5 6 15 6 6 2 5 4 4 5 6 7 16 9 5 4 2 3 2 2 1 4 5 4 2 1
19 20 20 18 18 19 19 22 23 13 10 15 5 4 7 5 5 9 6 3 4 3 4 3 4 3 6 4 3 1 3 3 1 8 5 6 1 3 5 5 4 3 4 5 7 5 6
17 18 19 16 16 17 17 20 24 14 11 10 10 10 3 8 4 4 3 0 1 3 7 5 4 3 3 1 4 8 6 5 3 2 3 3 3 3 4 6 7 5 6 5 2 1 3
15 16 17 14 12 13 15 17 19 17 14 13 12 8 5 2 3 1 2 4 1 3 3 2 5 3 4 11 5 6 7 5 15 12 1 3 3 2 1 5 2 4 7 8 1 7 8
13 14 16 13 11 10 10 13 15 14 12 11 10 6 4 1 1 4 8 4 5 4 3 2 5 3 9 4 4 5 5 5 5 6 8 3 4 2 3 2 5 2 5 5 4 2 7
12 11 13 12 10 7 7 8 10 11 9 8 8 7 4 4 3 1 3 2 1 2 5 3 3 9 6 5 4 3 1 2 3 5 7 4 5 4 2 3 4 0 5 13 3 5 7
11 11 9 11 10 9 5 5 6 8 8 7 8 6 3 2 1 1 2 3 3 2 1 4 4 6 8 3 3 2 1 0 1 1 3 4 3 3 3 3 3 3 14 11 5 2 14
9 10 8 9 9 9 8 4 4 5 7 7 6 6 3 2 4 4 4 3 3 3 3 1 2 4 4 4 3 1 2 2 1 2 1 3 3 2 2 1 6 7 5 1 8 17 16
9 9 9 7 8 7 8 6 4 5 6 6 5 7 8 5 5 9 10 10 7 6 7 4 1 2 4 4 1 2 1 2 3 2 1 3 5 4 7 5 3 1 4 7 8 14 20

GFSGBSN_850_spd_069.txt.gz
Wind_Speed
17 17 19 17 17 16 16 16 16 16 17 17 17 17 18 18 17 16 14 13 12 10 10 8 8 6 2 3 3 3 10 23 27 28 27 20 21 11 9 8 6 9 5 5 6 6 5
15 15 15 16 16 16 16 16 17 18 19 20 20 19 18 17 17 16 14 13 12 9 9 7 6 5 4 3 5 5 14 23 25 29 26 21 15 9 9 7 7 2 6 14 7 3 6
16 16 16 16 16 17 18 18 19 20 21 21 21 20 18 17 16 16 14 13 11 8 8 7 5 3 6 3 8 11 15 21 24 25 25 17 13 6 6 5 3 3 6 4 5 5 5
19 18 18 18 18 19 20 21 21 21 20 21 20 20 18 16 17 17 15 12 8 7 6 4 4 4 3 9 12 15 15 19 22 17 18 18 12 6 2 3 2 3 3 3 5 6 5
20 19 19 19 20 20 21 21 21 21 21 20 20 19 17 17 17 17 13 9 5 2 4 4 5 4 2 11 12 19 17 16 18 15 9 15 9 7 2 3 5 2 5 4 3 3 5
22 22 21 21 22 22 23 23 22 22 22 21 20 18 17 15 17 14 7 4 6 5 7 6 5 2 5 6 11 21 19 15 18 14 9 8 5 6 4 7 10 8 5 3 4 4 2
22 22 23 23 24 24 24 24 24 23 21 20 19 18 17 14 14 6 2 5 2 1 7 6 2 2 2 3 11 17 22 16 18 14 6 9 9 15 16 8 4 3 3 3 2 2 2
23 24 26 26 26 26 24 24 23 22 21 21 19 17 14 11 6 8 9 4 3 2 5 8 12 15 11 4 7 16 25 9 15 13 10 7 16 9 10 8 4 4 4 2 1 4 3
26 27 28 28 28 27 25 23 22 22 21 21 20 16 10 7 6 5 9 9 8 3 2 4 7 9 6 10 7 17 28 10 16 12 12 9 4 13 13 9 8 6 6 4 0 3 2
26 28 29 29 28 26 24 23 22 21 21 20 17 12 7 2 5 6 6 10 7 1 2 1 3 5 9 8 4 17 24 13 5 14 13 5 6 15 14 12 8 8 7 5 3 2 3
26 28 29 29 27 25 24 22 20 20 18 18 18 13 6 7 5 6 5 8 5 3 1 6 1 4 11 5 16 5 20 8 11 9 7 6 10 17 15 12 10 4 7 4 3 2 2
27 28 29 28 27 25 23 21 20 18 16 17 17 15 10 7 5 5 6 6 2 3 2 4 3 4 7 2 3 7 6 7 5 6 3 5 4 11 12 8 10 10 7 4 3 2 5
26 27 28 27 27 25 23 22 19 16 12 13 13 13 10 8 7 7 6 2 3 2 4 8 4 2 8 7 6 4 5 6 3 7 10 4 5 2 5 9 6 9 10 5 6 5 6
26 27 27 27 27 25 23 23 20 15 8 9 8 9 11 10 10 9 1 2 4 4 4 5 4 7 6 5 7 6 6 6 11 3 3 9 7 1 5 3 6 12 13 5 7 8 9
25 26 26 26 27 25 25 25 21 15 11 9 5 6 17 13 11 5 3 5 4 5 7 8 4 6 3 4 4 5 8 5 5 8 1 6 3 4 10 3 2 6 8 1 4 2 8
24 25 25 24 25 24 26 27 23 13 8 7 5 2 23 14 11 8 6 5 3 10 8 3 3 5 3 6 4 5 6 7 6 6 4 2 6 6 5 2 11 1 4 7 3 7 9
23 24 23 22 23 24 27 29 23 11 5 8 4 2 20 12 9 12 4 4 3 11 9 7 6 4 6 4 7 4 5 4 8 7 6 2 1 4 1 7 6 1 3 2 1 2 6
22 22 22 21 21 22 27 28 23 12 6 7 7 3 18 12 7 4 4 4 7 15 13 8 5 7 5 7 6 4 4 5 16 6 4 4 4 5 5 2 4 8 4 1 7 6 2
21 22 21 20 20 22 26 25 23 17 9 3 5 9 20 6 4 4 3 4 9 10 10 7 7 7 6 4 5 4 3 5 14 7 4 4 3 5 3 4 2 4 6 3 2 1 2
20 20 20 18 19 21 25 23 24 21 10 4 4 3 10 18 7 3 3 5 3 8 10 9 7 4 3 6 8 4 3 5 10 10 10 2 3 3 1 4 2 3 5 7 3 2 7
18 18 19 16 17 18 22 22 19 21 11 5 6 3 3 4 8 8 4 3 7 5 5 12 7 9 3 3 3 4 4 3 8 12 5 3 4 4 7 5 2 3 1 4 5 4 2
16 16 18 15 14 16 19 20 20 16 16 13 5 4 6 4 3 7 5 5 9 5 6 7 7 9 10 6 5 3 2 3 3 6 4 3 4 4 3 4 3 3 4 2 1 1 3
15 15 16 15 12 13 16 19 18 17 16 9 10 9 6 4 2 2 3 3 4 2 7 8 4 6 10 7 3 4 6 5 3 3 3 2 4 3 4 3 2 5 1 2 4 5 2
14 14 14 13 11 10 11 14 16 17 16 12 8 4 4 3 2 2 3 4 5 4 4 4 6 3 3 10 15 14 13 11 10 8 3 4 4 2 4 4 5 5 3 2 4 7 5
12 12 11 12 11 10 8 10 12 13 14 12 10 5 3 3 3 4 5 5 3 3 3 4 3 2 4 6 5 4 2 1 6 6 6 3 3 3 4 5 2 3 1 1 1 4 5
11 11 11 10 10 9 8 7 8 9 10 9 9 7 3 7 3 4 4 4 3 2 2 2 1 3 4 2 1 3 3 1 2 2 4 4 3 1 3 3 6 5 5 1 3 4 3
9 10 11 11 10 10 9 7 6 6 7 8 7 6 2 2 7 9 3 3 5 3 1 1 1 1 3 2 2 1 2 1 3 4 4 2 2 3 3 3 1 6 5 5 3 4 1
9 10 10 10 10 9 8 8 6 5 5 7 5 5 4 2 6 9 8 7 6 4 2 4 2 1 2 2 1 3 3 3 1 2 3 4 5 3 2 2 5 12 6 5 5 4 3
9 9 9 9 8 7 8 8 7 6 5 6 4 6 7 4 3 9 13 10 6 2 4 6 2 3 3 3 2 2 2 4 4 2 4 3 3 3 6 3 2 11 3 3 3 3 2

GFSGBSN_850_spd_072.txt.gz
Wind_Speed
14 15 15 15 15 14 14 14 15 15 16 16 15 15 15 15 14 13 12 11 11 9 8 7 6 4 3 5 3 5 8 19 25 22 23 21 20 14 12 13 9 7 4 2 3 2 2
16 16 15 15 15 16 16 16 16 16 17 17 16 16 14 13 11 12 13 12 10 9 7 5 6 3 2 7 3 1 14 22 21 22 22 19 15 11 10 10 11 5 9 6 5 1 5
18 17 17 17 17 17 17 18 18 18 18 17 17 16 16 13 11 12 13 12 9 8 8 6 5 4 5 2 5 11 16 18 19 18 20 17 11 13 7 8 9 6 9 8 3 5 8
18 18 18 18 18 19 19 18 18 18 18 18 17 16 15 14 13 14 13 10 7 6 8 6 5 4 2 7 9 13 16 18 14 17 14 11 12 10 10 4 8 11 8 11 7 8 6
21 21 21 21 20 20 20 19 19 18 17 16 16 16 15 13 12 12 10 6 3 2 6 7 5 5 6 9 12 14 15 18 17 13 13 10 11 13 9 13 11 11 12 12 8 5 8
22 23 23 23 22 21 20 19 19 19 17 16 16 15 13 12 11 9 1 2 5 5 6 4 3 5 6 11 15 15 13 17 18 14 12 12 11 10 12 13 14 16 14 12 9 9 9
23 24 25 25 23 21 20 19 19 19 18 17 17 15 12 9 8 0 7 4 2 4 7 4 3 2 13 12 15 15 14 16 14 17 13 17 11 16 17 16 7 11 15 14 6 8 6
24 25 26 25 24 22 20 19 19 18 19 19 17 14 9 5 5 8 6 1 2 1 4 8 9 7 7 12 14 19 19 13 16 15 15 11 17 15 13 11 9 10 13 10 6 6 6
24 25 26 26 24 23 21 20 19 18 18 18 16 11 5 2 10 8 5 1 4 3 6 5 6 8 11 11 17 24 23 12 16 16 16 16 10 11 12 16 14 13 14 12 6 7 4
25 26 27 26 24 22 21 19 18 17 17 18 16 10 4 9 5 5 2 7 5 2 5 6 6 8 10 13 10 23 26 15 10 14 15 11 7 15 17 18 16 14 9 5 9 8 10
25 26 26 25 24 21 21 20 18 15 14 15 16 15 8 4 6 1 3 5 3 4 4 4 7 4 14 20 22 17 24 14 13 11 10 11 17 18 19 17 15 5 9 12 9 10 2
24 25 25 24 23 21 21 21 16 11 10 11 13 12 7 4 3 4 6 6 4 7 5 3 4 11 15 11 10 19 21 12 4 10 15 3 14 14 13 12 13 9 10 8 7 10 11
24 25 24 24 22 21 23 23 18 12 8 8 9 11 9 6 4 7 6 4 5 3 1 4 3 12 16 11 9 20 18 15 10 12 13 7 12 11 15 16 15 14 14 9 9 9 9
23 24 24 23 22 23 25 25 20 12 10 7 4 8 9 9 7 4 1 6 3 3 6 3 1 8 10 11 7 11 12 11 1 10 14 12 13 15 7 15 13 18 18 8 11 12 13
23 23 23 22 23 24 27 26 20 11 9 7 3 5 10 12 7 6 8 5 6 6 7 6 8 10 11 7 7 8 6 4 4 7 6 14 8 6 1 2 8 19 18 13 7 4 12
22 23 22 21 22 25 28 24 18 9 7 5 3 1 13 11 8 1 1 7 5 8 6 3 10 4 8 7 10 7 3 5 3 7 6 1 6 3 2 5 2 6 13 10 9 12 14
21 22 21 20 22 25 26 22 19 10 6 7 3 4 11 10 7 3 5 5 5 9 6 6 4 8 3 5 5 3 3 7 6 5 5 6 6 9 8 3 5 9 10 10 12 8 13
20 20 19 18 20 23 25 22 21 12 4 6 4 1 13 7 2 3 7 4 4 9 7 4 5 6 7 3 7 3 5 5 9 5 2 6 4 10 7 5 2 3 4 9 11 13 8
19 18 19 17 18 21 23 22 23 20 8 3 4 6 12 1 3 6 6 8 11 10 10 4 5 6 3 3 4 6 5 4 7 3 3 4 1 8 10 8 5 3 2 4 8 8 17
17 17 18 16 16 19 20 21 21 22 10 5 2 1 8 13 6 5 7 7 5 8 11 9 4 2 3 5 3 8 6 3 4 7 5 4 3 5 2 7 7 8 4 1 8 11 8
14 15 17 15 13 16 19 19 20 20 12 5 5 5 2 4 8 8 7 3 6 3 5 5 5 5 2 3 6 5 4 6 4 5 1 4 4 5 6 6 4 3 3 2 1 5 7
13 14 14 15 12 13 16 17 17 17 13 9 3 1 7 7 3 6 4 6 7 7 3 8 8 8 5 7 5 7 4 0 3 2 2 3 3 5 3 1 1 5 3 2 2 3 6
13 13 13 14 12 11 13 15 17 16 13 8 8 6 3 2 3 1 7 5 5 4 8 7 5 5 7 6 5 5 4 3 4 3 1 2 5 6 9 3 3 8 10 5 6 2 1
11 11 12 12 12 10 9 11 13 14 14 9 5 3 2 5 5 6 6 7 8 7 7 7 3 2 3 6 7 7 7 6 4 2 2 4 4 3 3 6 8 7 4 2 4 6 6
10 10 10 10 11 10 8 8 9 10 11 10 8 3 2 3 6 7 7 7 7 6 7 7 8 5 7 3 4 4 5 5 5 3 2 3 4 3 4 10 4 7 6 6 11 9 3
10 9 9 10 10 10 9 8 7 6 7 8 7 5 2 4 4 6 6 4 3 3 6 6 4 4 5 4 1 3 1 3 4 5 0 3 2 4 4 4 5 10 6 4 3 6 7
9 9 8 9 10 9 9 7 7 6 5 5 4 4 2 1 6 7 1 2 2 2 2 4 5 5 6 1 2 1 2 2 2 3 5 5 4 7 7 5 1 7 7 5 7 5 9
9 9 8 9 9 8 7 7 6 6 4 3 2 3 2 2 5 7 4 4 4 1 1 6 5 4 4 3 2 2 2 3 1 3 3 5 4 4 5 4 6 12 6 4 8 8 5
9 8 7 9 9 6 5 5 5 5 4 3 1 5 3 2 0 7 8 7 4 3 3 4 3 2 2 2 2 3 3 4 4 2 5 4 3 2 4 1 2 15 2 6 4 5 4

GFSGBSN_850_spd_075.txt.gz
Wind_Speed
16 15 13 13 13 13 14 15 15 15 15 15 15 14 13 13 12 11 11 12 11 11 10 8 6 4 3 7 9 6 7 14 20 22 20 19 19 19 15 14 14 6 7 5 6 8 8
17 16 15 15 15 15 15 15 15 15 15 15 15 15 14 12 11 11 12 12 12 10 10 8 6 5 5 13 2 7 9 19 23 21 20 19 16 16 12 10 11 11 7 5 5 7 7
17 17 17 17 17 17 17 17 17 17 16 16 16 15 14 13 12 10 12 13 11 11 9 8 7 6 9 5 3 6 13 17 22 20 20 18 12 13 12 8 15 5 11 10 9 9 8
19 20 19 19 18 18 18 17 17 16 16 16 16 15 14 13 13 11 12 9 8 7 7 7 7 6 7 8 8 11 14 16 17 17 16 15 12 15 11 8 12 13 15 14 11 10 12
20 20 21 21 20 19 18 18 17 16 15 15 15 15 14 12 11 10 10 5 4 1 4 5 3 8 8 8 15 15 16 17 16 15 14 12 12 18 14 13 14 14 14 16 13 14 14
21 22 22 21 20 19 18 17 16 16 16 16 15 14 13 12 9 8 3 2 3 5 6 5 6 8 11 15 19 17 16 16 16 16 12 13 12 14 14 14 16 18 20 19 14 11 12
21 22 22 22 21 20 18 18 17 17 17 16 15 12 9 8 6 2 6 1 2 4 11 8 8 9 9 18 19 18 19 19 16 15 15 19 13 17 20 20 22 16 18 15 11 16 15
22 23 22 22 21 20 19 17 16 15 16 17 16 12 7 3 1 4 4 5 5 6 9 13 7 6 7 15 19 19 21 18 17 15 19 12 18 17 17 17 17 18 19 15 13 6 11
22 22 22 21 20 19 19 17 15 15 15 16 15 10 6 2 6 5 2 3 4 7 8 10 13 15 14 18 19 22 25 19 18 18 19 15 14 19 15 14 13 16 15 15 15 10 15
21 22 21 20 19 18 19 17 15 13 12 13 16 11 4 9 4 2 3 3 6 5 6 10 12 11 18 17 15 23 24 16 12 17 17 16 16 18 12 16 16 18 16 12 10 16 12
21 22 20 20 18 18 19 18 15 11 10 10 11 10 5 3 3 4 3 4 4 3 6 5 10 12 15 21 18 23 22 18 13 13 11 16 16 14 16 18 16 12 13 8 11 15 13
20 21 19 19 18 20 21 21 19 12 8 7 7 6 2 3 4 5 6 6 4 7 3 7 5 12 17 21 13 24 23 22 11 14 14 17 14 13 17 19 17 7 9 11 12 14 15
19 20 19 19 19 21 23 23 20 12 10 8 6 5 3 4 6 8 7 7 7 5 4 5 12 17 17 14 14 18 19 16 13 14 13 16 9 17 18 20 16 13 14 10 11 12 11
19 20 19 19 20 22 24 23 19 12 9 7 3 7 8 8 8 6 6 12 9 6 11 3 8 14 17 16 12 18 18 17 18 14 10 16 14 19 14 20 13 17 20 12 12 13 14
18 18 18 18 19 23 23 22 19 10 7 6 4 4 4 8 6 3 13 3 9 8 5 7 8 14 11 8 4 18 18 13 9 7 7 13 12 14 8 16 17 18 19 24 14 14 14
18 18 18 17 18 21 21 22 19 10 6 5 4 5 4 8 7 9 10 9 7 6 8 8 9 2 7 14 14 12 9 2 1 3 11 11 9 12 11 8 12 12 14 20 11 17 15
16 17 17 15 17 20 21 20 20 11 6 5 5 8 4 7 8 16 3 10 5 6 8 10 2 3 2 10 5 11 4 7 2 7 7 11 10 12 8 14 15 12 12 16 13 16 13
15 16 16 14 16 19 20 21 21 14 4 4 6 4 7 3 11 5 9 5 2 4 6 5 7 4 7 11 8 5 5 9 2 5 6 2 8 10 17 4 4 14 15 17 12 19 15
14 14 16 14 14 17 18 20 21 17 7 2 3 5 7 6 4 6 5 8 8 3 5 1 3 1 5 7 2 9 1 3 4 1 3 3 9 5 6 6 10 12 10 11 15 18 14
13 14 14 14 12 14 17 18 19 17 9 3 5 2 6 6 5 5 5 3 6 4 5 3 2 3 11 9 9 4 6 2 2 5 3 5 7 7 6 3 16 19 9 11 14 11 12
11 13 13 14 11 12 14 16 17 14 8 4 7 6 5 7 8 7 4 3 2 3 3 1 2 4 8 6 12 8 6 6 5 3 5 6 10 12 3 8 9 12 14 9 16 17 13
11 12 13 13 12 10 11 13 15 11 8 5 4 2 6 6 1 4 3 7 5 6 5 4 4 2 4 4 9 9 5 5 6 5 5 6 3 10 10 5 5 5 6 6 8 5 8
10 11 12 11 12 11 9 10 13 12 9 5 4 4 5 3 3 3 6 4 5 2 6 6 4 2 5 5 4 6 5 3 4 8 4 6 9 7 14 13 4 10 12 10 8 6 11
9 10 10 10 9 11 10 8 9 11 11 7 4 2 3 4 5 6 6 6 7 7 6 6 3 2 3 2 3 5 3 2 5 5 8 6 9 8 12 9 13 4 1 4 6 5 8
10 11 9 9 8 8 10 8 5 7 8 7 6 3 3 2 7 6 6 8 9 6 6 6 6 3 3 5 5 5 6 5 5 3 6 6 7 7 11 9 5 8 7 7 12 10 2
10 10 9 9 8 6 8 8 5 3 4 6 6 4 3 1 6 6 5 4 3 6 6 6 3 2 3 8 2 7 2 5 4 6 5 4 6 6 7 9 14 13 11 4 2 10 12
10 9 8 8 8 6 5 7 6 3 1 2 3 3 1 5 7 6 2 1 1 1 3 5 5 5 5 2 2 2 0 3 3 4 5 7 7 8 8 7 1 10 8 6 9 6 12
9 9 9 8 7 7 4 4 5 3 1 3 3 1 1 5 6 5 3 3 4 5 4 9 5 6 7 3 2 2 3 3 2 5 6 4 4 4 8 10 10 13 6 6 11 14 13
9 9 8 7 7 5 3 3 4 3 2 3 1 5 1 4 6 5 6 6 3 1 2 4 6 1 5 3 1 3 3 4 5 2 6 4 3 2 4 3 6 6 2 8 7 9 7

GFSGBSN_850_spd_078.txt.gz
Wind_Speed
16 16 16 16 16 16 16 17 17 16 16 16 16 14 14 15 13 11 11 12 12 12 11 9 8 7 5 7 14 8 6 12 17 21 17 19 18 19 17 16 13 9 18 15 11 24 24
17 17 17 17 17 17 17 17 17 18 17 17 17 16 14 14 14 13 10 12 12 11 11 9 8 6 5 12 3 8 5 12 18 22 17 18 15 18 17 11 14 13 16 10 12 16 13
18 18 18 18 18 17 17 16 17 17 17 17 17 17 15 15 13 12 13 13 11 10 8 7 8 6 9 17 1 4 11 14 18 21 17 17 15 17 11 15 13 13 20 10 9 14 12
18 19 19 19 18 18 17 16 15 15 16 17 17 16 16 15 13 11 11 12 8 7 5 6 5 5 9 9 8 9 12 14 17 18 15 14 14 13 18 14 12 14 12 14 17 14 17
19 20 21 20 19 18 17 16 16 16 16 16 16 16 16 15 13 9 9 6 4 2 3 6 4 6 10 10 13 13 14 17 18 16 15 13 11 13 17 15 11 13 14 20 1 15 18
19 21 21 20 19 18 17 17 16 15 15 16 16 16 15 12 10 7 3 0 1 4 4 6 4 8 16 13 15 16 15 16 19 18 15 10 10 12 15 13 14 18 19 13 20 17 17
20 21 20 20 19 19 19 18 17 17 17 19 18 15 12 9 6 4 4 2 4 4 13 13 8 12 4 12 17 16 18 18 19 18 14 17 11 16 20 20 19 20 18 18 16 11 15
20 20 19 19 18 18 20 19 16 16 17 18 19 15 9 6 2 2 5 5 8 9 10 22 15 19 4 20 20 18 19 17 18 17 18 13 17 17 18 18 18 22 21 16 12 15 22
19 20 19 19 17 18 19 20 17 13 13 15 18 15 7 3 2 1 3 9 6 7 9 15 16 14 8 15 17 21 22 21 17 18 19 19 14 19 17 17 18 20 18 11 17 7 19
19 19 18 18 17 18 20 21 19 14 11 12 14 13 5 3 5 4 9 4 6 7 6 15 14 14 19 16 16 21 23 22 11 18 18 19 18 19 19 17 16 17 19 20 22 21 11
18 19 18 18 17 19 22 23 20 16 11 10 10 8 5 7 5 7 6 6 7 4 6 12 12 10 18 18 17 23 21 23 14 16 14 17 18 13 18 16 16 16 18 15 9 16 12
18 19 18 17 17 20 23 23 21 15 9 10 10 7 5 5 10 5 8 7 6 6 3 7 10 9 14 18 23 24 20 21 16 15 16 17 16 18 15 11 15 18 16 14 5 11 12
17 18 17 17 17 21 23 23 21 13 9 9 6 6 7 9 9 8 6 6 6 5 9 5 9 14 17 15 11 20 17 17 15 10 14 16 18 17 11 13 19 18 15 8 9 10 9
17 17 17 16 17 20 22 22 20 12 9 7 3 3 6 5 5 7 5 8 6 16 15 8 6 13 16 18 18 13 16 16 18 18 12 12 15 14 16 19 18 19 18 10 16 13 13
16 16 17 16 16 19 21 21 20 13 7 6 8 9 9 8 5 4 12 4 7 13 9 11 4 11 15 17 10 13 17 16 16 18 7 10 20 20 18 19 21 19 18 20 18 19 15
16 16 17 15 16 18 20 21 20 15 8 9 13 15 16 5 2 2 8 12 8 7 11 8 10 8 8 8 5 5 12 6 8 8 6 4 11 15 17 19 14 3 14 17 14 10 18
16 16 16 15 15 17 19 21 22 16 8 9 14 9 3 7 7 9 6 2 4 6 11 12 10 11 2 11 13 8 10 11 3 8 2 13 4 1 12 11 15 8 13 11 16 15 15
16 15 15 15 14 15 18 21 22 19 8 7 16 9 5 3 11 6 4 10 4 7 2 6 8 9 4 10 6 5 6 5 8 11 7 7 6 7 15 10 15 14 14 16 13 20 14
15 16 14 15 13 14 17 19 20 18 11 12 10 5 6 5 4 5 5 4 9 11 6 0 2 1 11 4 2 13 5 2 7 8 9 12 8 8 6 10 6 10 15 15 16 18 18
14 14 14 14 13 13 14 17 17 15 9 10 10 2 6 5 8 5 1 4 2 3 3 7 5 5 7 5 4 9 9 2 4 9 5 3 12 5 3 15 12 18 18 15 13 11 13
14 13 13 13 13 12 12 14 15 10 7 12 7 5 5 7 9 9 9 4 3 2 0 2 3 9 5 6 8 12 6 5 4 2 3 5 10 9 7 9 16 11 20 17 10 14 9
13 12 12 12 12 12 11 12 14 8 3 4 9 7 1 4 2 5 5 6 7 6 10 3 3 4 5 11 4 7 17 4 6 7 5 8 9 8 11 11 10 16 4 2 11 12 10
12 13 11 11 11 12 11 10 12 11 8 5 6 2 10 6 6 4 7 7 6 2 4 8 7 6 2 11 8 6 11 3 5 11 5 8 5 1 10 12 8 10 8 1 5 10 20
12 13 11 10 10 11 11 9 7 9 9 8 7 7 16 1 6 7 5 6 7 7 5 7 7 5 7 5 6 9 8 4 4 8 9 5 7 8 11 5 12 11 6 5 11 3 14
14 14 10 9 9 10 10 9 6 4 4 5 7 6 10 4 6 5 5 7 6 4 5 6 5 3 0 3 5 3 4 4 8 3 7 12 9 8 11 9 4 7 4 9 13 7 10
13 11 8 8 8 9 9 8 6 4 2 2 7 4 9 9 7 7 3 3 6 6 6 5 3 1 4 9 1 2 3 5 3 8 6 7 7 8 9 14 14 10 8 3 5 8 10
11 12 9 7 7 7 7 7 6 3 2 1 4 6 4 13 8 4 5 5 3 4 3 4 3 3 4 3 3 3 2 3 3 5 0 5 5 8 9 8 6 13 5 3 8 2 15
13 11 10 7 7 7 5 4 5 3 1 3 2 7 3 11 5 3 0 1 2 5 4 7 3 4 5 2 2 3 1 1 2 6 8 3 3 4 9 11 4 10 5 4 9 14 12
12 11 8 6 6 6 4 3 3 2 1 4 2 9 6 6 6 1 3 4 3 4 7 2 4 4 9 1 1 2 2 3 5 3 5 4 2 3 3 3 6 3 7 9 10 13 10

GFSGBSN_850_spd_084.txt.gz
Wind_Speed
18 18 18 17 16 15 15 15 14 15 15 14 14 14 14 13 13 13 11 10 9 9 10 9 8 8 8 6 10 2 2 10 15 18 21 20 15 10 5 4 9 2 4 2 11 20 18
18 18 18 18 17 17 17 16 16 16 16 16 16 16 15 14 12 11 11 10 10 10 9 8 8 7 7 4 3 4 2 6 14 18 23 23 10 9 8 8 11 12 13 14 9 18 18
18 18 18 17 17 18 18 17 17 17 17 18 19 19 17 15 13 11 9 9 10 9 6 7 6 8 10 13 5 3 6 7 11 18 25 23 14 9 4 7 14 8 6 13 17 15 8
18 18 17 17 17 17 18 18 18 18 19 20 21 21 19 16 12 10 8 7 8 7 4 5 5 7 9 6 11 8 4 10 13 17 22 16 10 16 17 8 2 4 3 5 10 18 20
18 17 17 17 16 17 18 19 18 17 17 19 21 22 19 15 11 8 5 5 4 3 0 3 3 5 9 5 15 10 9 8 14 16 22 13 9 11 5 2 4 1 5 3 5 24 10
18 18 17 17 16 17 18 20 20 18 16 17 20 21 18 13 10 7 5 2 3 2 2 5 5 5 9 11 14 13 10 7 14 14 9 10 5 1 4 4 5 6 4 2 9 16 7
18 18 17 17 16 17 19 21 21 19 17 16 19 20 17 13 9 7 3 2 4 2 7 9 7 12 19 6 13 16 18 14 12 11 5 5 3 6 7 6 6 3 4 4 8 16 8
17 18 17 17 17 18 21 23 22 20 17 13 16 17 14 11 12 7 2 5 7 8 10 18 20 25 23 13 7 16 20 16 9 5 3 5 5 7 6 7 7 6 3 1 6 10 7
17 17 17 17 17 18 21 23 23 21 17 11 12 13 9 11 13 6 10 7 9 16 5 15 14 15 18 8 13 19 18 20 7 6 5 6 6 8 6 8 8 7 4 4 6 9 7
18 17 16 16 17 18 21 22 23 21 16 12 12 11 9 9 5 9 9 7 15 13 4 7 4 6 8 10 7 18 17 16 3 9 5 6 8 6 9 10 7 8 8 8 14 5 6
17 17 16 16 16 18 21 22 22 21 16 14 12 10 9 7 5 5 9 13 12 6 3 13 4 3 3 8 12 12 15 17 5 6 6 8 5 7 9 16 8 11 6 8 10 7 7
17 16 16 17 16 17 20 22 22 21 17 14 12 9 9 5 6 6 11 13 10 5 3 9 3 4 4 3 3 3 23 20 5 2 3 8 18 8 10 11 12 10 2 3 4 4 3
17 17 16 16 15 16 19 21 22 22 20 15 12 10 10 12 2 9 15 13 5 4 6 6 5 5 4 7 5 5 6 4 5 2 3 5 5 8 7 7 5 4 6 1 1 1 5
18 16 16 15 15 14 16 20 22 23 22 14 11 12 12 10 4 6 11 5 7 3 6 6 8 10 8 7 7 6 7 4 5 4 2 2 6 6 3 9 7 5 8 5 5 4 5
18 14 15 15 16 14 15 19 22 23 23 15 9 11 12 3 4 4 5 5 4 4 6 5 11 8 6 5 4 6 9 5 5 5 7 1 4 4 4 5 8 3 3 7 2 1 2
18 14 15 15 16 15 15 17 21 22 22 14 6 9 8 5 6 5 4 2 3 5 3 2 6 6 4 7 6 5 3 3 3 5 3 3 3 1 7 2 2 7 4 2 3 2 3
16 15 15 16 16 16 15 17 21 22 21 11 7 8 6 7 7 4 2 4 5 5 10 2 4 5 4 4 5 5 4 4 4 7 7 4 4 8 3 1 8 4 2 5 4 4 5
15 14 13 14 15 16 16 17 20 23 19 13 4 2 4 12 4 2 1 4 2 8 15 7 3 3 4 6 5 5 4 4 10 5 3 1 3 2 4 6 4 5 2 5 5 4 2
15 14 12 13 14 14 16 16 18 22 21 19 11 6 3 9 1 2 5 1 5 6 5 7 6 4 4 3 4 3 3 4 11 6 2 4 3 3 9 6 9 6 5 4 2 2 5
15 13 12 12 14 14 14 15 15 18 18 18 4 3 4 8 6 6 4 4 3 10 6 5 3 9 7 7 6 5 6 3 5 4 1 3 4 5 4 3 1 5 11 6 5 3 3
15 15 13 12 14 14 14 15 13 15 13 8 2 2 7 1 4 4 6 4 8 5 11 18 10 5 5 4 4 5 5 6 3 7 4 4 2 2 6 7 5 3 8 14 2 5 4
15 14 12 11 12 13 14 15 12 14 11 9 6 6 9 6 6 9 6 6 7 4 5 5 7 9 6 4 2 1 1 5 2 7 5 6 2 3 6 6 9 7 14 12 6 9 11
16 12 11 12 12 12 12 12 12 11 10 6 10 4 4 4 4 5 1 3 5 6 9 13 7 5 7 3 1 3 3 4 2 2 5 4 3 3 1 4 3 5 7 8 5 6 16
14 11 12 11 9 10 10 10 10 8 10 11 12 6 4 4 2 4 7 8 5 3 5 6 9 4 2 6 3 4 5 9 5 6 5 3 3 2 1 5 4 4 6 7 8 5 9
10 10 11 9 8 9 9 8 8 5 4 6 9 6 3 1 3 9 12 6 5 7 5 4 4 2 2 5 4 4 5 5 7 5 5 5 4 3 3 1 5 2 5 2 5 5 11
9 9 10 8 7 8 8 8 6 4 1 2 7 8 1 1 3 10 7 12 4 4 2 1 3 3 3 3 3 3 1 3 3 8 8 6 6 5 2 2 3 3 2 5 15 1 3
9 9 10 9 6 7 7 6 4 4 1 1 4 10 2 1 6 6 4 2 2 4 3 2 2 0 1 3 3 2 1 2 1 2 4 4 3 3 1 2 4 4 10 3 6 6 11
11 11 10 9 5 5 5 6 3 2 0 3 3 8 8 3 6 10 5 5 5 5 5 4 3 3 4 4 3 2 2 3 3 2 2 2 3 1 2 2 4 7 6 4 3 6 21
13 11 9 8 6 5 5 4 3 1 1 4 5 0 3 2 2 2 2 2 1 5 6 3 4 4 3 4 1 3 2 2 4 1 0 1 5 4 5 5 7 8 12 12 15 18 21

GFSGBSN_850_spd_087.txt.gz
Wind_Speed
17 17 16 16 15 15 15 14 14 14 14 14 15 14 14 13 13 12 11 10 7 9 10 9 8 7 6 5 7 2 1 15 22 21 21 17 16 6 2 3 5 3 3 7 20 19 17
17 17 17 16 15 16 16 16 15 14 15 17 17 17 15 13 12 11 11 10 8 8 10 9 7 6 6 4 4 5 6 10 18 23 22 21 13 10 3 6 6 10 2 10 14 18 18
17 17 17 16 16 17 18 18 17 16 16 17 18 19 18 14 12 10 9 8 8 9 7 6 6 7 9 11 4 8 5 6 13 18 22 24 11 3 4 6 3 15 5 9 4 13 8
16 16 16 16 16 17 18 19 19 18 17 17 19 20 17 14 11 8 6 6 8 6 5 5 6 6 8 3 11 10 7 10 13 14 16 19 15 8 5 6 2 6 6 3 6 8 11
16 15 15 15 15 16 18 20 20 19 18 16 17 19 17 12 9 7 5 4 4 5 2 2 3 4 7 7 18 11 8 5 11 14 13 12 4 4 3 3 4 4 5 5 8 18 8
16 16 15 14 14 16 19 20 21 20 18 16 16 18 16 11 9 6 3 4 4 3 1 1 5 4 5 1 12 15 12 7 10 12 7 7 5 2 3 4 5 3 0 4 7 13 11
15 16 16 15 15 16 19 20 21 21 18 15 13 15 14 12 12 5 1 2 4 1 7 11 8 13 19 3 5 16 15 14 7 8 5 6 4 5 9 5 4 3 2 5 6 11 8
15 15 15 15 15 16 18 20 21 21 18 13 12 13 10 11 12 3 4 5 8 7 10 20 19 23 21 18 5 13 15 11 5 4 4 5 4 7 5 6 3 2 2 1 7 8 4
16 16 15 15 15 15 17 19 20 21 18 14 12 11 9 10 4 3 8 10 19 17 3 9 7 9 6 7 7 12 18 15 3 4 4 5 3 6 3 1 1 1 3 3 4 5 4
16 15 15 15 14 15 16 18 20 21 19 15 12 8 6 6 3 9 5 15 19 10 4 6 4 3 6 7 3 9 17 17 2 8 6 4 5 3 2 3 5 2 6 3 10 5 4
16 15 15 15 15 14 16 17 19 21 21 17 14 11 8 6 7 5 9 13 13 1 3 14 4 4 3 8 5 9 15 17 7 5 6 6 5 4 5 7 6 8 5 7 9 5 6
18 15 14 14 15 14 15 17 18 20 20 17 13 11 10 7 6 5 12 16 5 5 4 8 5 6 2 1 2 7 12 11 6 4 2 6 4 6 8 6 9 5 2 6 5 4 1
18 16 14 15 15 15 15 17 19 20 19 17 12 11 9 8 5 11 16 9 4 4 2 6 4 6 4 3 3 3 4 4 5 4 3 5 4 5 6 2 2 4 6 1 3 1 5
18 16 14 15 15 16 16 17 19 20 20 15 8 11 10 7 9 12 13 5 7 2 3 5 5 4 5 3 3 4 6 4 1 4 2 3 2 7 4 9 7 7 9 5 6 5 4
17 16 14 14 15 16 16 17 19 21 19 13 4 9 10 5 6 7 5 5 6 4 4 5 6 6 5 2 3 2 4 5 2 6 6 5 5 3 2 4 9 4 3 7 6 3 4
16 15 14 14 15 15 17 17 18 20 20 12 5 7 10 9 9 5 5 3 2 4 3 2 3 2 5 5 3 4 5 3 3 2 6 3 1 2 4 1 4 7 6 4 3 4 3
17 16 15 14 15 15 17 19 19 20 20 13 6 5 1 4 7 1 2 4 4 5 4 0 3 4 4 5 4 3 3 2 2 3 8 2 2 6 1 5 1 3 2 6 5 4 5
17 16 14 13 14 16 16 19 19 19 19 14 4 2 3 2 2 2 1 4 2 5 6 6 3 2 2 2 4 4 4 3 8 3 4 2 4 1 1 6 2 6 3 3 5 3 3
16 15 13 13 14 15 15 17 18 19 18 19 8 3 2 10 1 2 5 2 4 6 6 5 6 5 4 3 5 4 4 5 10 4 3 1 3 3 5 6 8 8 5 2 3 3 6
16 15 14 13 12 14 15 16 16 16 18 13 2 3 3 7 1 5 4 3 3 13 5 3 3 5 6 8 7 4 5 4 10 7 4 4 3 5 5 4 3 3 5 3 3 4 5
16 15 13 11 12 14 15 14 14 13 10 5 3 2 3 2 4 4 4 4 3 3 4 14 6 5 2 4 4 4 6 6 6 13 4 4 3 1 1 6 6 5 6 10 4 4 4
15 15 12 11 12 12 13 13 12 11 5 7 2 4 3 2 1 5 3 2 2 2 3 5 6 5 5 4 1 2 1 4 2 7 4 4 2 1 5 3 8 8 13 13 7 5 8
16 14 10 11 11 9 11 12 12 8 5 3 5 3 1 5 2 3 2 3 2 6 5 4 5 4 7 3 2 4 2 1 3 2 4 3 3 3 1 5 6 6 5 6 2 5 6
16 11 10 10 9 8 10 10 10 7 8 8 9 3 2 1 2 2 3 4 4 2 4 2 3 3 1 7 2 1 1 8 10 10 4 3 3 3 2 3 2 5 5 4 9 5 3
15 11 10 9 7 7 8 8 8 5 4 5 6 2 3 1 1 0 7 5 7 4 3 2 2 3 3 5 4 5 6 6 6 7 7 4 5 3 3 1 3 3 2 4 3 4 8
14 11 10 9 7 6 7 7 6 4 0 2 5 4 2 6 3 3 3 5 3 1 5 2 2 2 2 5 4 3 2 2 4 5 4 5 7 4 2 3 4 4 6 16 5 3 14
11 10 11 10 8 7 6 6 4 3 2 3 2 3 2 2 4 4 3 5 4 4 2 3 1 2 3 3 3 2 1 2 0 1 3 4 4 3 1 2 4 5 8 11 6 4 14
10 10 12 12 8 7 5 5 3 3 2 5 3 1 2 1 4 7 5 3 5 6 5 4 3 3 4 4 3 2 2 3 2 3 3 3 4 2 2 3 3 4 6 1 3 2 9
13 12 12 11 8 7 5 4 3 2 2 6 4 2 3 2 2 2 5 3 1 4 10 5 2 3 4 4 1 3 1 2 2 2 2 1 5 4 5 5 6 1 5 6 2 3 11

GFSGBSN_850_spd_093.txt.gz
Wind_Speed
16 15 14 13 14 15 16 16 15 14 13 13 14 15 15 13 11 10 8 8 8 7 7 7 7 6 4 6 4 2 3 12 20 24 21 17 17 7 4 2 3 5 2 7 20 19 19
16 15 14 14 14 14 16 16 17 16 15 13 13 15 16 13 11 10 9 6 6 6 6 7 5 5 4 3 3 3 3 16 21 23 20 15 11 9 6 2 4 2 7 15 21 19 18
15 15 14 13 12 13 15 17 18 18 17 14 11 15 16 12 10 9 6 5 4 4 5 4 3 4 7 6 3 5 7 18 21 19 20 13 19 7 9 3 2 9 16 13 16 16 9
15 14 13 12 12 13 15 18 19 19 17 13 9 13 14 13 10 8 5 3 3 3 3 1 1 3 5 5 7 7 14 18 15 13 15 14 16 6 3 4 2 3 9 10 10 14 3
14 13 13 12 12 13 15 17 19 19 18 14 10 11 11 11 11 8 5 4 3 5 4 2 2 2 2 2 6 11 16 13 13 14 9 16 10 2 4 7 4 2 7 5 12 16 10
16 15 13 13 13 13 14 17 18 19 18 15 12 11 9 10 11 8 5 6 6 4 2 4 1 0 4 3 5 13 13 9 14 14 9 7 4 4 3 6 7 6 5 7 11 12 7
17 15 14 14 13 13 13 14 16 18 19 16 13 11 9 8 10 7 7 4 8 3 10 8 7 8 8 4 5 13 12 10 16 12 6 6 7 12 9 3 5 10 7 5 3 10 12
18 16 14 14 13 13 12 12 14 17 18 18 14 11 9 8 8 4 5 3 8 7 8 7 8 14 13 6 3 8 19 4 10 14 9 7 14 8 8 4 5 7 8 6 3 14 5
17 16 14 14 13 13 12 12 13 16 17 18 15 10 8 6 5 3 2 4 16 11 3 5 4 3 2 11 7 11 22 10 9 13 13 13 6 10 9 7 7 4 6 7 5 13 12
15 16 15 13 13 13 14 13 13 15 17 17 17 10 6 5 2 7 1 11 17 5 2 6 2 2 2 5 4 15 20 10 5 12 12 8 5 14 9 11 8 8 8 5 12 10 4
15 15 16 13 13 14 15 14 13 14 16 17 17 10 4 2 7 5 4 14 11 1 2 10 2 2 3 3 8 13 23 7 7 7 6 7 12 12 12 9 7 2 5 6 9 5 9
15 14 15 13 14 15 15 16 14 14 16 17 17 8 4 3 7 2 10 14 1 2 4 4 4 4 3 3 4 8 12 5 3 6 3 5 4 8 7 7 11 6 8 8 5 4 4
15 13 14 13 13 15 15 16 16 15 16 16 16 5 2 6 3 8 10 3 2 3 2 5 3 5 3 1 6 9 11 8 4 8 11 5 6 3 4 7 5 7 8 3 6 5 3
16 15 15 14 13 14 16 16 17 16 16 15 11 3 2 4 8 6 8 1 3 2 3 2 2 2 1 2 3 3 10 8 3 3 5 11 9 10 8 9 6 12 13 5 8 6 9
16 17 16 14 14 14 16 16 17 16 15 14 6 2 2 4 4 4 1 3 0 2 3 5 3 1 2 3 2 3 1 11 6 5 2 8 8 2 7 6 11 6 10 5 3 1 7
17 18 16 15 13 15 16 17 16 15 14 12 1 2 2 5 4 3 2 1 1 3 3 2 3 1 0 1 4 3 2 1 4 3 2 4 5 4 6 6 3 6 11 9 3 8 10
18 18 16 15 14 15 16 17 17 16 13 10 2 3 2 2 2 2 1 1 2 2 2 2 2 1 3 1 5 5 1 2 1 2 6 6 3 4 4 4 11 6 6 1 5 3 9
18 17 16 16 16 15 16 17 17 16 12 7 1 2 3 6 1 2 1 2 4 4 5 2 2 3 3 3 3 3 3 2 4 4 5 3 2 1 3 3 1 2 4 4 9 7 0
16 16 16 17 16 14 15 16 16 16 14 6 1 3 2 4 1 1 1 1 3 4 5 5 4 4 1 2 3 3 4 3 5 2 3 6 1 5 6 5 3 4 2 2 3 2 7
14 16 17 17 15 13 14 14 14 13 12 3 1 2 2 2 3 2 2 1 1 5 3 2 3 1 1 4 5 3 4 3 9 3 6 2 3 2 5 5 3 5 5 3 2 5 7
12 14 17 16 12 12 12 12 12 12 8 3 1 2 2 2 2 3 1 1 2 3 5 8 2 6 2 3 3 3 1 5 4 12 5 2 4 11 11 11 11 12 8 5 5 3 5
12 13 15 14 12 10 9 10 10 10 6 4 1 2 3 3 2 1 2 2 2 1 4 3 4 8 4 4 2 2 1 1 2 5 4 6 4 4 2 2 3 10 10 10 8 4 2
13 13 14 12 11 9 8 9 8 8 8 4 3 4 2 1 2 2 1 2 3 1 2 4 1 1 7 5 2 2 3 8 6 1 3 3 5 5 3 4 2 3 5 7 5 3 1
14 11 12 12 9 8 7 7 7 5 6 6 5 1 1 2 1 2 5 3 4 2 2 2 2 1 2 2 8 5 8 10 13 12 5 4 4 1 3 3 7 4 3 2 5 3 1
16 12 11 11 8 7 6 5 5 4 3 3 5 2 2 2 2 4 7 5 6 4 3 3 2 2 1 2 1 2 1 2 6 7 10 5 3 4 3 3 2 6 4 2 2 2 2
16 13 11 10 8 7 6 5 4 3 2 1 2 3 1 3 4 4 4 3 2 2 2 2 2 2 1 3 2 1 2 1 1 1 4 4 7 1 2 3 4 4 1 6 4 4 4
16 13 11 10 9 8 7 6 4 3 3 5 3 1 2 2 5 8 3 4 4 3 2 1 1 1 3 2 2 1 2 1 3 3 0 2 3 1 3 2 1 1 5 3 4 3 1
18 14 12 10 10 10 9 7 5 4 4 7 5 1 1 2 4 8 7 5 5 4 3 4 3 1 2 2 2 2 2 2 2 1 2 3 3 2 2 2 5 4 1 2 3 4 3
20 16 13 12 12 10 10 8 6 5 5 7 7 4 2 3 3 7 8 7 4 2 7 8 1 3 3 3 2 3 2 3 2 3 2 3 2 1 4 1 1 2 3 3 4 5 6